GEFSMA_500_meanwind_108.txt.gz
Wind_Speed
22 23 24 25 26 27 28 29 30 30 28 26 26 26 24 24 23 23 22 21 19 18 18 16 15 13 12 12 12 13 14 14 14 14 13 14 14 14 13 13 13 13 12
21 22 23 24 25 26 27 28 30 30 30 28 27 26 26 26 26 26 25 24 22 20 19 19 17 16 15 14 13 14 14 15 15 15 14 14 15 15 14 13 14 13 12
19 20 21 22 23 24 25 26 28 30 31 30 28 28 28 27 27 27 27 25 25 23 21 21 19 18 17 16 15 14 14 15 15 16 15 15 15 15 15 14 14 14 13
17 18 19 20 21 22 24 25 26 28 30 31 30 29 29 28 27 27 28 26 26 25 23 22 21 20 19 18 17 16 15 15 16 17 16 16 16 16 16 15 15 14 14
15 15 16 17 18 20 21 24 25 27 29 29 31 30 29 28 27 28 29 28 27 26 25 24 23 22 21 20 19 18 17 17 17 17 17 17 17 17 17 16 16 15 15
13 13 13 14 15 17 19 21 23 25 27 28 30 31 30 29 29 28 29 29 29 28 27 26 25 24 23 22 21 20 19 18 17 18 18 18 18 17 17 17 18 17 16
12 12 12 12 13 15 16 18 20 22 25 27 28 29 30 30 30 29 29 30 30 28 28 28 27 26 25 24 23 22 22 20 19 19 19 19 18 18 18 18 18 19 18
12 11 11 11 12 13 14 16 18 20 22 25 27 28 29 31 31 31 31 30 30 29 29 29 29 28 27 27 26 24 23 22 21 20 20 20 19 19 19 19 19 19 19
12 11 10 10 10 11 12 14 15 17 20 23 26 27 28 31 32 32 31 31 30 30 30 30 30 30 29 28 28 26 25 25 23 22 22 21 21 20 20 19 20 20 20
13 11 9 9 9 9 10 12 14 16 18 21 23 25 26 29 32 32 32 31 31 31 30 31 31 31 31 30 30 29 28 27 26 25 24 23 22 22 21 21 21 20 20
14 12 10 8 8 8 9 10 12 14 16 18 21 23 25 27 29 31 31 30 31 31 31 32 33 32 32 32 32 31 30 30 29 27 26 26 24 23 23 22 22 22 21
15 12 10 9 8 7 7 8 9 11 13 16 18 21 23 25 26 28 30 30 30 31 31 31 33 33 33 32 32 32 32 32 31 30 29 28 27 26 25 25 24 23 23
15 13 11 9 8 7 6 6 8 9 11 13 16 19 20 22 24 26 28 29 30 30 31 31 31 32 33 33 33 32 33 34 33 32 31 30 29 28 27 26 26 25 24
16 15 12 10 8 7 6 6 6 8 10 12 14 16 18 19 22 23 25 27 28 29 30 31 31 32 33 33 32 32 33 34 34 34 33 32 31 30 29 28 27 27 27
16 15 13 11 9 7 6 5 5 6 8 10 12 14 15 17 19 21 23 25 26 28 28 30 31 32 33 34 34 34 34 34 34 35 35 34 33 32 31 30 29 29 28
16 15 14 12 10 8 7 6 4 4 6 8 10 12 14 15 17 19 21 23 25 27 27 29 30 31 33 33 34 34 34 35 35 34 35 36 35 35 34 33 31 31 30
16 16 15 13 11 9 8 7 4 3 4 5 7 9 11 13 15 17 19 22 23 25 26 26 28 30 32 33 33 34 33 34 34 35 35 37 37 36 36 35 34 33 32
16 15 15 13 12 10 9 7 6 3 3 4 6 7 9 11 12 14 17 19 21 22 24 24 26 27 29 30 31 33 33 34 35 36 36 36 37 37 37 37 36 35 34
16 15 14 14 13 11 10 8 6 5 3 4 5 6 8 9 10 12 15 16 18 20 21 22 23 24 26 27 30 31 33 33 34 35 36 36 37 38 38 38 38 37 36
15 15 14 13 13 12 11 10 8 6 4 4 4 5 7 8 10 11 13 15 16 18 19 21 21 23 24 25 27 29 31 32 33 33 34 36 37 39 39 39 39 39 39
15 14 13 13 12 12 11 10 9 8 6 4 4 5 6 8 9 10 12 14 15 17 18 20 20 21 23 24 25 27 29 31 32 32 34 36 37 38 39 40 40 40 40
15 14 13 13 12 12 11 10 10 9 7 6 4 4 5 7 9 10 11 13 14 16 17 19 20 21 22 23 23 24 26 28 29 31 32 33 35 37 39 40 40 40 41
14 14 13 13 13 12 11 10 9 9 8 8 6 5 5 6 7 9 10 11 12 14 16 18 19 20 21 22 23 23 25 26 28 29 30 31 33 34 36 37 39 40 40
14 14 13 13 12 12 11 10 9 9 9 8 7 6 6 6 7 8 9 11 12 13 14 16 18 19 20 21 21 22 23 25 26 28 30 32 33 34 35 36 37 39 40
13 13 13 13 12 12 11 11 10 9 9 9 8 8 8 7 7 8 9 10 12 13 14 15 17 19 19 20 21 22 22 23 24 26 28 30 32 33 34 35 36 37 38
13 13 13 13 13 12 12 11 11 11 10 10 9 9 9 8 8 8 9 10 11 12 14 15 17 18 19 20 21 21 22 23 24 25 27 28 29 31 32 34 35 36 38

GEFSMA_500_meanwind_114.txt.gz
Wind_Speed
19 19 20 20 21 22 24 25 26 26 26 27 26 26 26 25 26 25 25 24 23 21 19 18 17 16 14 13 12 12 13 13 12 12 12 12 12 12 12 12 11 11 10
19 19 19 19 20 21 22 23 24 25 25 27 26 25 26 26 26 25 25 24 24 22 21 20 19 18 16 15 14 13 13 14 14 14 13 13 12 13 13 13 12 11 11
18 18 18 17 17 19 20 21 22 24 25 26 26 25 25 26 26 26 25 25 25 24 22 21 20 19 18 17 15 14 14 14 14 15 14 14 13 14 14 14 13 12 12
18 18 17 16 16 16 17 19 20 22 24 25 26 26 26 25 26 26 26 25 25 25 24 23 22 21 19 18 17 16 15 15 15 16 16 15 14 14 15 15 14 13 13
18 17 16 15 15 15 15 16 18 20 22 24 24 26 26 26 26 27 28 27 26 26 25 25 24 22 22 21 19 18 16 15 16 16 16 15 16 15 15 16 15 14 14
17 16 15 14 14 14 14 14 15 17 19 22 23 24 25 25 26 26 27 28 28 26 26 26 25 24 23 22 22 20 19 18 17 17 17 17 16 16 15 16 16 15 15
18 16 15 14 13 13 12 13 14 15 17 19 21 23 24 25 26 25 26 28 28 28 27 26 26 25 24 23 23 22 21 20 19 18 18 18 17 17 16 16 16 16 15
18 17 15 13 12 11 11 11 12 13 15 17 19 21 23 24 25 25 26 27 28 28 28 27 27 26 25 25 24 23 22 21 20 19 20 19 18 18 18 16 16 16 16
18 17 14 13 11 10 9 10 11 11 13 15 17 19 21 22 24 25 26 27 28 28 28 27 27 28 27 26 25 24 23 22 22 21 21 20 20 19 19 18 18 17 17
18 16 15 13 12 10 9 9 10 11 11 13 15 17 19 21 22 23 25 25 27 28 28 27 27 27 27 27 27 26 25 24 24 23 22 22 22 20 20 20 19 19 18
18 16 15 13 12 10 8 8 9 10 11 12 14 16 17 20 21 22 23 25 26 27 27 27 27 28 27 26 27 28 28 27 26 25 24 24 23 22 21 21 20 20 20
18 17 15 13 12 10 9 8 8 9 10 11 12 14 16 18 20 22 22 23 25 27 27 27 28 28 28 28 28 28 28 28 27 27 26 25 25 24 23 22 21 21 21
18 17 15 13 12 10 9 8 7 7 9 9 10 11 14 16 18 21 22 22 24 25 27 27 27 29 28 28 28 28 28 28 28 29 28 27 26 27 26 25 24 23 22
18 17 15 14 12 10 9 8 7 7 7 8 9 10 12 14 16 18 19 21 22 24 24 26 28 28 29 28 29 29 29 30 30 30 30 30 29 29 28 27 26 25 24
19 17 15 14 12 11 10 8 7 6 6 7 8 9 11 12 14 16 18 20 21 22 23 25 27 27 27 28 29 30 29 30 31 31 31 30 30 30 31 30 29 28 27
18 17 16 14 13 12 11 9 8 6 6 6 7 8 10 11 13 14 15 17 19 20 22 24 26 27 27 27 28 30 30 30 31 32 31 31 31 31 31 32 31 31 31
18 17 16 14 13 12 11 10 8 7 6 6 6 8 9 11 12 13 13 15 16 18 20 22 24 25 26 27 28 29 30 31 30 32 33 32 33 33 33 32 33 32 32
18 17 16 15 14 13 12 11 9 7 6 5 6 7 8 10 11 11 12 13 14 15 16 18 21 23 24 24 27 29 29 30 30 31 33 33 33 33 33 33 33 33 33
17 17 17 16 15 13 13 12 10 8 6 6 6 6 7 8 9 10 11 12 13 14 15 16 18 21 22 22 24 26 28 29 30 30 31 32 33 33 33 33 33 34 34
17 16 16 16 15 14 13 12 11 9 7 7 6 5 5 6 7 9 10 11 12 14 15 15 17 18 20 21 22 24 26 27 28 29 31 32 33 33 34 35 34 35 35
16 16 16 16 15 14 13 12 11 10 9 8 6 5 5 6 7 8 10 11 12 13 15 16 17 18 18 20 21 22 24 26 27 28 29 31 32 33 34 35 35 36 36
15 15 15 15 15 14 13 12 11 10 10 9 8 6 6 6 7 9 10 11 12 13 14 15 16 17 17 18 20 21 22 24 25 27 29 30 30 31 32 34 35 36 36
14 15 15 15 15 14 14 13 12 11 10 10 9 8 7 7 8 9 10 11 12 13 14 15 16 17 17 18 19 21 22 23 25 26 26 28 29 30 31 32 33 34 35
14 14 14 14 14 14 14 13 13 12 12 11 11 10 9 9 8 9 10 11 12 13 13 14 15 16 17 19 19 19 20 22 23 25 25 26 27 28 28 30 32 33 34
15 14 14 14 14 14 14 14 13 13 12 12 12 11 11 10 10 9 10 11 12 13 13 14 15 16 17 18 19 20 20 21 22 24 26 26 27 28 28 29 31 32 33
15 15 15 14 14 14 14 14 14 14 14 13 13 12 12 11 10 10 10 11 12 13 13 14 15 16 18 18 19 20 21 22 23 24 25 26 27 28 29 30 30 32 33

GEFSMA_500_meanwind_120.txt.gz
Wind_Speed
17 17 17 17 17 18 18 19 22 22 24 25 25 25 26 26 26 25 24 23 23 21 20 20 19 18 16 15 14 14 13 12 12 12 13 13 13 14 14 14 14 14 14
18 17 17 17 16 17 17 18 20 21 23 24 25 25 26 27 27 27 25 25 24 22 21 21 20 19 18 17 16 15 14 14 14 14 14 15 14 14 14 14 14 14 13
18 17 17 16 16 16 16 17 19 20 22 22 23 25 26 28 27 27 27 26 25 24 23 23 22 21 20 18 17 16 15 15 16 15 15 15 15 15 15 15 14 14 14
18 17 17 16 15 14 14 16 17 19 20 22 23 24 25 26 27 27 27 27 26 25 24 24 23 22 21 20 19 18 17 16 16 17 16 16 16 16 15 16 15 15 14
18 17 17 16 15 14 13 14 15 16 18 20 22 23 24 25 27 28 28 28 27 27 26 24 23 23 22 21 20 19 18 17 17 17 18 17 17 17 16 17 17 16 16
18 17 17 16 15 13 13 12 13 14 16 18 20 22 23 24 26 28 28 28 28 27 26 26 25 24 23 22 21 21 20 19 19 18 19 18 18 18 18 17 18 18 18
18 18 17 16 14 13 12 11 11 12 14 16 18 21 22 23 24 25 27 27 28 28 27 27 27 26 25 24 23 22 21 20 20 20 20 20 19 19 18 18 19 20 20
19 18 17 16 14 12 10 10 10 10 12 15 16 19 21 22 22 24 25 26 28 29 28 28 28 27 26 25 25 24 23 22 21 21 21 21 20 20 19 19 19 20 20
19 18 17 16 14 12 10 9 8 9 11 12 15 17 20 22 23 23 24 24 25 27 28 28 28 28 27 26 26 25 24 24 23 23 22 22 22 21 20 20 19 20 21
19 18 18 16 14 12 10 8 7 7 9 11 13 15 18 20 22 23 24 24 24 25 27 29 28 28 28 27 27 27 25 25 25 24 23 23 23 23 22 21 21 21 21
19 18 17 16 14 12 10 8 6 6 8 9 11 14 16 18 20 22 23 23 24 24 25 28 29 28 27 28 28 27 26 26 26 25 25 25 24 24 24 23 22 22 22
18 18 17 16 14 12 11 8 6 6 7 7 9 11 13 16 18 20 22 23 24 24 24 25 27 27 27 27 27 27 27 26 26 26 25 26 25 25 25 25 24 24 23
19 18 17 15 14 12 11 9 7 5 5 6 7 9 11 14 16 18 20 21 22 23 24 25 26 26 26 27 27 28 28 27 27 26 26 26 27 26 27 26 26 25 25
18 18 17 15 14 13 11 9 7 5 4 5 6 8 9 12 14 17 18 20 21 22 22 23 24 25 26 26 27 28 28 28 28 27 27 27 27 28 28 28 28 28 27
17 17 17 16 14 12 11 10 8 6 4 4 5 7 8 10 12 15 17 18 20 21 22 22 23 24 25 24 25 26 27 28 28 28 28 28 28 28 28 29 29 30 29
17 17 17 16 14 13 11 10 9 6 4 3 4 5 7 9 11 13 16 17 19 21 21 22 23 24 25 25 25 26 27 28 29 29 30 30 29 28 28 29 29 30 31
16 16 16 16 15 14 12 10 9 7 5 4 3 5 6 8 10 12 15 16 18 19 20 21 22 23 24 24 25 25 26 27 28 29 30 30 30 30 31 31 30 30 32
15 15 15 15 15 14 12 11 9 8 6 4 3 4 5 7 9 10 12 14 16 18 19 20 21 22 22 24 24 24 24 25 26 27 28 30 31 31 32 33 33 33 33
14 14 14 15 14 13 13 11 9 8 6 5 4 3 4 6 8 9 10 12 14 16 18 19 20 21 22 23 23 24 24 24 25 26 27 28 29 31 32 33 33 34 35
13 13 13 14 14 13 12 12 10 8 7 6 5 4 3 4 6 8 9 11 13 15 16 18 19 20 20 22 23 24 24 23 24 25 26 27 28 29 32 33 34 34 35
12 12 13 13 13 12 12 11 11 9 8 7 5 4 4 4 4 6 8 10 12 14 15 16 17 19 19 20 22 23 24 23 24 24 25 26 27 28 30 33 34 34 35
12 12 12 12 12 12 11 11 10 10 9 7 6 5 5 5 5 6 7 9 11 12 14 16 17 18 19 20 21 22 23 24 24 25 26 26 27 28 30 31 33 34 35
12 12 12 12 12 11 11 11 10 9 9 8 8 7 6 5 6 7 8 10 11 12 14 15 17 18 19 20 21 22 24 24 24 25 26 27 27 28 30 31 32 33 35
13 13 12 12 12 12 11 11 10 10 9 9 8 8 7 7 7 7 8 10 11 12 14 15 17 18 19 20 20 21 22 24 24 25 26 26 27 29 30 31 32 33 34
15 14 14 13 13 13 12 11 11 11 10 10 9 9 8 8 8 8 8 9 11 12 13 15 16 17 19 20 21 21 22 23 25 25 26 27 28 29 29 30 31 32 33
16 16 15 15 14 14 14 13 12 12 12 11 11 11 10 10 9 9 9 9 10 12 13 14 15 17 18 20 21 22 23 23 24 25 26 27 28 29 29 30 30 31 31

GEFSMA_500_meanwind_126.txt.gz
Wind_Speed
15 16 16 16 17 17 17 17 18 19 20 21 21 22 22 22 23 22 22 22 21 20 19 19 18 17 16 15 14 13 12 11 11 11 13 14 15 15 15 15 16 15 15
15 16 17 16 16 16 16 16 17 18 18 19 20 22 22 22 22 23 23 22 22 21 21 20 19 18 18 17 16 15 14 13 13 12 13 13 14 14 15 15 15 15 15
16 16 16 16 16 16 15 15 15 16 17 17 19 20 22 23 23 23 24 24 24 23 22 21 21 20 19 19 18 16 15 15 14 13 14 15 15 15 15 16 16 15 15
16 16 16 16 16 15 15 14 14 15 15 16 17 19 21 22 22 23 24 25 25 24 23 23 22 21 20 20 19 18 17 16 16 15 15 16 16 16 16 16 16 15 15
16 17 16 16 16 15 15 14 14 13 14 15 16 18 20 21 21 22 23 24 26 25 24 24 23 22 21 21 21 19 18 18 17 17 16 16 16 16 16 16 16 16 16
17 17 16 16 16 15 14 14 13 13 13 13 15 17 19 20 21 22 22 24 25 26 25 25 24 24 23 22 22 21 20 19 19 18 17 17 17 17 17 17 17 17 16
17 17 16 16 16 15 14 13 12 12 12 12 14 15 17 19 21 22 22 23 25 26 26 26 26 25 24 23 23 22 21 20 19 19 19 19 19 18 18 18 18 18 17
17 17 17 16 16 15 14 12 11 10 10 11 12 13 15 17 19 22 23 23 23 25 26 26 27 26 26 25 23 23 22 21 21 20 20 20 20 20 19 19 19 19 19
17 17 17 16 16 15 14 12 10 9 9 9 11 12 14 16 17 19 21 22 23 24 25 26 27 27 27 26 25 24 23 22 22 21 21 20 20 20 20 20 20 19 20
17 17 17 16 16 15 14 12 10 9 8 8 10 11 13 14 16 18 20 21 22 23 25 26 27 27 28 28 27 26 25 24 23 23 22 22 21 21 21 21 20 20 20
17 17 17 16 15 15 14 12 11 9 8 8 9 10 11 13 15 17 19 21 21 22 24 25 27 27 27 28 28 27 27 26 25 24 24 23 23 23 23 22 21 21 21
17 17 17 16 16 15 14 13 11 9 7 6 7 9 10 12 14 16 18 20 20 21 23 24 26 27 28 28 28 28 28 27 27 26 25 25 25 25 25 24 23 23 23
17 17 17 17 16 15 14 13 11 9 7 6 6 8 9 11 13 15 16 19 20 20 21 24 24 26 27 27 28 28 28 28 28 27 26 26 26 26 26 26 25 25 24
16 16 16 16 16 15 14 13 11 10 7 5 5 7 8 9 11 13 15 17 19 19 20 22 22 24 25 27 28 28 28 28 29 28 27 26 26 26 26 27 27 26 26
15 16 16 16 15 15 14 13 12 10 7 5 4 5 7 8 10 11 13 15 17 18 18 20 21 22 23 25 26 27 28 29 29 29 28 28 27 27 27 27 28 28 28
14 15 15 16 15 15 14 13 12 10 8 6 4 4 6 7 8 10 11 13 16 17 18 19 21 21 21 22 25 25 26 28 29 29 28 28 28 28 28 28 28 28 28
14 14 15 15 15 14 14 13 11 10 8 7 5 4 5 6 8 9 10 12 14 15 17 18 20 20 21 21 23 25 25 26 28 28 29 29 28 28 28 28 29 29 29
14 14 14 14 14 14 13 13 11 10 8 7 5 4 3 5 7 8 9 11 13 14 15 16 18 19 21 22 22 23 24 24 26 26 27 28 28 29 29 29 30 30 30
14 14 14 14 14 13 13 12 11 10 9 7 6 4 3 4 6 7 8 10 12 14 15 16 17 19 20 20 22 22 23 24 25 26 26 27 27 28 29 30 30 30 30
14 14 14 14 13 13 12 12 11 9 8 7 6 5 5 4 6 7 8 9 11 13 15 16 17 18 20 21 22 23 24 25 25 25 27 28 28 28 29 30 30 31 30
15 14 14 14 13 13 12 11 10 10 9 8 7 6 6 6 6 7 8 9 11 13 14 16 16 17 19 21 22 23 24 25 26 26 27 28 28 28 29 30 30 30 31
16 15 15 14 14 13 12 12 11 10 9 9 8 7 7 7 7 8 8 9 11 12 14 15 16 17 18 20 21 22 23 25 26 27 28 27 28 29 29 29 29 30 31
17 17 16 15 15 14 13 12 12 11 11 10 9 8 8 8 9 9 9 10 12 13 14 15 16 17 18 20 20 22 23 24 25 26 26 27 28 29 30 30 31 31 31
19 19 18 17 16 15 15 14 13 13 12 11 11 10 9 9 9 10 10 11 12 13 14 16 17 17 18 19 21 22 23 24 26 26 26 27 28 29 29 30 31 32 32
21 21 20 19 18 18 17 16 15 15 14 13 13 12 11 11 11 11 11 12 13 14 15 16 17 18 18 19 21 22 23 24 25 26 26 27 28 29 29 30 30 31 32
23 23 22 21 21 20 19 19 18 17 16 15 14 14 14 13 13 13 13 13 14 15 15 16 17 18 19 19 20 21 22 23 25 25 26 27 28 28 29 30 31 32 32

GEFSMA_500_meanwind_132.txt.gz
Wind_Speed
14 15 15 16 16 15 15 16 16 15 15 16 17 18 18 19 20 21 22 22 23 23 22 20 19 18 17 16 15 14 14 14 14 13 15 16 18 19 19 18 17 17 16
15 15 15 16 16 15 15 15 15 15 15 16 17 18 19 19 20 21 22 22 24 24 23 22 21 20 18 17 16 16 15 15 14 13 14 16 17 18 17 17 17 17 16
15 16 16 16 16 15 15 14 14 14 15 15 16 17 18 19 21 21 23 23 23 24 24 24 22 21 20 19 18 17 17 16 15 15 16 16 17 17 17 17 17 17 17
15 16 16 16 16 15 14 14 14 14 14 14 15 16 17 18 20 21 22 23 23 24 25 25 24 23 22 20 20 18 18 17 17 16 16 17 17 17 17 17 17 16 16
15 16 16 16 15 15 14 14 13 13 13 14 15 16 16 17 19 20 22 23 24 25 25 26 25 24 23 22 21 20 19 19 18 17 17 18 19 18 17 17 17 17 18
15 16 16 16 15 15 14 14 13 12 12 13 14 15 16 17 19 20 22 23 24 25 26 26 26 26 25 24 23 22 21 20 19 18 17 18 18 18 18 18 18 18 17
15 16 16 15 15 15 14 14 13 12 11 12 13 14 15 16 18 20 21 22 24 25 26 26 26 26 26 25 24 24 23 22 21 19 19 19 19 18 18 17 19 19 18
16 16 16 16 15 15 15 14 13 11 11 11 11 12 14 15 17 20 21 22 23 24 25 24 25 26 26 26 26 25 24 24 23 21 20 20 20 19 19 18 17 18 18
15 16 16 16 16 15 15 14 13 11 10 9 10 11 12 14 16 18 20 22 23 24 25 25 25 26 27 26 26 26 25 25 24 23 22 21 20 20 20 19 18 18 18
15 16 16 16 16 16 15 14 13 11 9 8 8 9 10 12 14 16 19 22 23 24 25 25 25 26 28 27 26 26 25 25 25 24 23 23 22 21 21 21 21 20 19
15 15 16 16 16 16 15 14 14 12 9 8 7 8 9 11 12 14 17 20 22 23 24 25 25 26 27 28 27 27 26 26 26 25 25 24 23 23 23 23 22 21 21
15 15 16 16 16 16 15 15 14 13 10 8 6 6 7 9 12 14 15 17 19 21 22 25 25 26 26 27 27 27 27 27 27 27 26 26 25 25 24 24 23 22 22
15 15 16 16 16 16 15 15 14 13 11 8 6 5 6 8 10 12 14 15 17 19 20 23 25 26 27 26 27 27 27 28 27 27 27 27 27 26 26 25 25 24 24
15 15 15 16 16 16 15 15 14 13 11 8 6 5 6 7 9 11 13 14 16 18 20 22 23 25 27 27 27 28 28 28 28 28 28 27 27 27 26 26 26 26 26
15 15 15 16 16 16 16 15 14 12 11 9 6 5 5 6 8 9 11 13 15 17 19 21 22 23 25 26 27 28 29 28 27 27 28 29 28 28 27 27 27 27 26
14 15 15 15 16 16 16 15 14 12 11 9 7 5 4 5 7 8 10 12 13 15 18 20 22 22 24 24 26 27 29 28 28 27 28 29 29 29 29 29 28 29 28
15 15 15 15 15 16 16 15 14 12 11 10 8 6 5 4 6 7 9 11 12 13 15 18 21 21 23 24 25 26 27 28 29 28 29 29 30 29 29 29 29 29 29
15 15 15 16 16 16 15 15 14 13 11 9 8 7 5 5 5 6 8 10 12 13 14 16 19 20 21 23 24 25 25 27 28 28 29 30 30 30 30 30 30 30 30
16 16 16 16 16 15 15 15 14 13 11 10 9 7 6 6 6 7 8 10 11 13 14 16 18 19 20 22 24 25 25 26 27 29 30 30 30 30 30 29 29 29 29
16 16 16 16 16 16 15 15 14 13 12 11 10 8 7 7 7 8 8 9 11 12 14 15 17 18 20 21 22 23 23 25 26 27 28 29 29 30 30 29 29 29 29
17 17 17 17 17 17 16 15 14 14 13 12 11 10 10 9 9 10 10 11 11 12 14 15 16 17 18 20 21 22 23 23 24 26 27 28 30 30 30 30 30 30 30
19 18 18 18 18 18 17 16 16 15 14 13 12 12 11 11 10 11 11 12 13 14 15 16 17 18 18 19 21 22 23 23 24 26 27 28 29 29 30 30 29 30 31
21 20 20 19 19 19 19 18 18 17 16 15 15 14 13 13 12 12 13 13 13 15 16 17 19 20 20 20 21 22 23 23 25 26 27 29 30 30 31 31 31 32 32
23 23 22 22 21 21 21 20 20 19 18 17 17 16 16 15 15 15 15 15 15 16 17 18 19 20 21 22 22 22 23 23 25 26 27 28 29 30 30 31 32 32 32
26 26 25 25 24 23 23 23 22 22 21 20 19 19 18 18 18 18 17 17 17 18 18 19 20 21 22 23 23 23 24 24 25 26 27 28 29 29 30 31 31 32 32
29 28 28 28 28 27 26 26 25 25 24 24 23 22 21 21 20 20 20 20 20 20 20 20 21 22 23 23 23 24 24 25 26 26 27 29 29 30 30 31 32 32 32

GEFSMA_500_meanwind_138.txt.gz
Wind_Speed
14 15 15 15 15 15 15 14 13 13 13 13 13 14 14 15 16 17 17 18 19 19 18 18 18 17 16 14 13 12 12 13 13 13 14 16 16 16 17 16 15 17 17
15 16 16 16 16 16 15 14 14 13 12 12 13 14 14 15 16 16 17 18 19 19 19 19 19 18 17 16 14 13 13 15 14 14 15 15 16 17 17 15 15 17 17
16 16 16 16 16 16 16 15 14 13 12 12 12 13 13 14 15 16 17 18 19 20 20 21 20 19 18 17 16 15 14 15 16 15 16 16 17 17 18 17 16 17 16
16 17 17 17 17 16 16 15 14 13 12 12 12 12 12 13 15 15 16 17 18 19 20 21 22 21 19 19 18 16 16 15 16 16 16 17 17 18 18 18 17 17 16
17 17 17 17 17 17 16 15 14 13 12 12 11 11 11 11 13 14 15 17 18 18 20 21 22 22 20 20 19 17 17 16 16 16 16 17 18 18 18 18 17 17 16
16 17 17 17 17 17 17 16 14 14 13 12 11 11 11 11 11 13 14 16 16 17 19 21 22 22 21 21 20 19 18 17 17 16 16 17 19 19 18 18 18 18 18
16 17 17 17 18 17 16 16 14 14 13 12 11 10 10 11 11 12 14 15 16 17 18 20 21 22 22 22 21 20 19 17 17 17 17 17 18 19 17 17 18 18 18
16 17 17 17 18 17 17 16 14 14 13 11 10 10 10 10 11 12 13 14 15 16 18 19 20 21 22 23 22 21 20 19 18 18 18 18 18 19 19 17 19 18 18
16 16 17 17 18 18 17 16 15 14 13 11 10 9 8 9 10 11 12 13 14 16 18 19 19 20 21 23 23 22 21 21 20 19 18 18 18 18 18 18 18 17 18
16 16 17 17 18 18 18 17 15 14 13 12 10 8 8 8 8 10 11 13 14 16 18 18 19 20 20 21 22 22 22 22 21 20 20 19 19 18 18 18 17 17 17
15 16 17 17 17 18 18 17 16 15 14 12 10 9 8 8 8 8 10 12 14 15 17 19 19 19 20 21 21 22 23 22 22 22 22 21 20 20 19 19 19 18 18
15 16 17 17 17 17 18 17 17 16 14 13 10 9 8 8 7 7 8 10 13 15 16 18 19 19 20 20 21 21 22 22 22 22 23 23 22 21 20 20 21 19 19
15 16 16 17 17 17 17 17 17 16 15 13 11 9 8 7 5 6 7 9 11 13 15 16 18 19 20 20 21 21 21 22 22 23 23 24 23 23 22 22 21 21 20
15 15 16 16 17 17 17 17 17 16 15 13 11 9 8 6 5 5 6 8 9 11 13 16 17 19 21 21 21 20 21 22 22 23 23 23 24 24 24 24 23 22 22
15 16 16 16 16 17 17 17 17 16 15 13 12 10 8 6 5 4 5 7 8 9 12 14 16 18 19 21 22 22 22 23 23 23 23 23 24 25 25 25 25 24 23
15 16 16 16 16 16 17 17 17 17 15 14 12 10 8 7 5 4 5 6 8 9 11 13 15 17 19 20 22 22 23 23 23 23 24 24 24 25 25 26 26 25 26
15 15 16 16 16 16 16 17 17 16 16 14 13 11 9 7 6 5 6 6 8 10 11 12 14 16 18 20 21 22 23 23 24 24 25 25 25 26 26 26 26 26 26
15 15 16 16 16 16 16 16 16 16 16 14 13 12 10 9 7 7 7 7 8 9 11 12 13 14 16 19 21 22 23 23 25 25 25 26 25 26 26 27 28 28 28
15 16 16 16 17 17 16 16 16 16 15 15 13 12 11 10 9 8 8 8 9 9 11 12 13 14 16 18 19 21 23 24 24 25 26 26 26 27 27 27 27 28 28
16 17 17 17 17 17 17 17 17 16 16 15 14 14 13 12 11 10 9 10 10 11 12 13 14 15 16 18 19 21 22 23 24 25 25 26 26 26 27 27 27 27 28
17 18 18 18 18 18 18 18 17 17 17 17 16 15 14 14 13 13 12 12 12 12 13 13 14 15 17 18 19 20 22 24 24 25 26 26 27 27 28 28 28 28 28
19 19 19 19 20 20 20 20 20 19 19 19 18 17 16 16 15 15 14 14 15 15 15 15 16 17 18 19 20 20 22 24 24 25 26 27 28 28 29 29 28 28 28
21 22 21 22 22 22 23 23 23 22 22 21 21 20 20 19 18 17 17 17 17 17 17 18 18 19 20 20 22 22 22 23 24 25 26 27 28 28 28 28 29 29 29
23 24 24 24 24 25 25 25 26 26 25 25 24 24 23 22 22 21 20 20 20 20 20 20 20 21 22 22 22 23 23 24 26 26 27 27 27 28 28 29 29 29 29
26 26 27 27 27 27 28 28 28 29 28 28 27 26 26 26 25 25 24 23 23 23 23 23 23 23 23 24 24 24 25 25 27 27 28 28 28 29 29 29 29 30 30
28 29 30 30 31 31 31 32 32 32 32 31 30 30 29 29 29 29 28 27 27 26 26 26 26 26 26 26 26 26 26 27 27 27 28 28 29 29 29 30 30 31 31

GEFSMA_500_meanwind_144.txt.gz
Wind_Speed
11 11 11 12 12 12 12 12 11 11 10 10 11 11 12 13 13 14 15 15 16 17 17 17 16 16 16 15 14 14 13 14 13 13 13 15 17 18 20 21 21 21 21
11 11 12 12 12 12 12 12 11 10 10 10 10 10 11 12 13 13 15 16 16 16 17 17 17 17 16 16 15 14 14 16 16 15 15 16 18 19 20 20 20 21 21
11 11 12 13 13 13 13 12 11 10 9 9 9 9 10 11 12 13 14 15 16 17 17 17 17 17 17 16 16 14 15 17 17 16 17 18 19 19 19 20 19 20 21
11 12 12 13 13 13 13 12 11 10 10 9 9 9 9 9 11 12 13 14 15 16 17 17 18 18 17 17 17 16 16 16 17 18 18 19 19 20 19 19 20 20 21
12 12 12 13 14 13 13 12 11 10 10 9 8 8 8 8 9 10 11 13 14 14 16 17 18 18 18 17 17 16 16 16 17 18 19 19 20 21 20 20 19 21 20
11 12 12 13 14 14 13 12 11 11 10 8 7 7 7 7 8 9 10 12 14 15 16 17 18 18 19 18 17 16 17 17 17 19 20 20 20 22 21 21 21 21 21
11 12 12 13 14 14 13 12 11 11 10 9 8 7 6 7 7 9 10 11 13 14 16 17 18 18 18 19 18 18 17 18 18 18 19 20 21 22 22 22 21 21 21
11 12 13 13 14 14 13 12 12 11 10 9 8 7 6 6 6 7 9 10 12 14 16 17 18 18 18 18 19 19 18 18 18 18 17 18 21 23 23 22 22 22 21
11 12 12 13 14 14 13 12 12 11 10 9 8 7 6 5 5 6 7 9 10 13 15 17 18 18 19 19 19 19 19 19 19 19 18 18 20 22 22 22 21 21 21
11 11 12 12 13 13 13 13 13 12 11 10 9 7 6 5 5 5 6 8 10 11 14 16 18 18 18 19 19 19 19 19 19 19 19 19 20 20 21 21 21 21 22
10 11 12 12 13 13 13 13 13 13 12 11 10 8 6 4 4 4 5 7 10 11 12 15 16 18 18 18 19 20 20 20 20 20 20 20 20 21 21 21 21 21 22
10 11 12 12 13 13 13 13 13 14 13 12 10 8 6 5 4 4 5 6 8 10 12 14 16 17 18 19 19 20 20 21 21 21 21 21 21 22 22 21 21 21 21
10 10 11 12 12 13 13 13 13 14 13 12 11 9 7 5 5 4 4 5 7 9 11 13 15 16 17 18 19 20 20 21 22 22 22 22 22 23 23 23 22 22 22
10 10 11 11 12 12 13 13 13 13 14 13 11 9 7 6 5 4 4 5 6 8 10 12 14 16 17 18 19 20 20 21 22 22 22 23 23 23 24 24 24 24 23
10 10 11 12 12 12 12 12 12 13 13 13 12 10 8 7 5 4 4 4 5 7 8 11 13 14 17 19 19 20 21 21 22 22 23 23 24 24 24 25 25 25 24
10 11 11 12 12 12 12 12 12 13 13 12 12 10 9 8 6 5 4 4 5 6 8 10 12 14 16 18 19 20 20 22 22 22 22 23 24 25 25 26 26 26 26
10 11 11 12 12 12 12 12 12 12 13 12 12 11 10 9 7 6 5 5 5 6 8 10 12 14 16 17 18 20 21 23 24 24 24 24 24 25 26 27 27 27 27
10 11 11 12 12 12 12 12 12 12 13 13 12 12 11 10 8 7 7 6 6 7 8 10 12 13 15 17 18 20 22 23 24 26 26 26 26 27 27 27 28 28 29
11 11 12 12 12 12 12 12 12 13 13 13 13 12 12 11 9 9 8 8 8 9 9 10 11 13 14 16 18 19 22 24 25 26 27 27 27 27 28 29 29 29 30
12 13 13 13 13 13 13 13 13 14 14 14 14 14 13 13 12 11 11 11 11 11 12 12 13 14 15 16 18 20 21 24 25 26 27 28 28 29 29 29 30 30 30
14 14 14 14 14 14 15 15 15 15 16 16 16 16 15 15 15 14 14 14 14 14 14 15 15 16 18 19 20 21 22 24 25 27 28 29 29 30 30 30 31 31 32
15 16 16 16 16 16 17 17 17 17 18 18 18 18 18 18 18 18 17 17 17 17 17 18 18 19 20 21 22 23 24 25 26 27 29 30 30 30 31 32 32 32 33
18 18 18 19 19 19 19 19 20 20 21 21 21 21 21 21 21 21 21 21 21 21 21 21 22 22 23 24 24 25 26 26 27 28 30 30 31 32 33 33 34 34 34
20 20 21 21 22 22 22 22 23 23 24 24 24 25 25 25 25 25 25 25 25 25 25 25 25 26 26 27 27 28 29 29 29 29 31 31 32 33 34 34 34 34 35
23 23 24 25 25 25 25 26 26 27 27 28 28 29 29 29 29 30 30 29 28 28 28 28 28 29 29 30 30 31 31 32 32 32 32 33 33 33 34 35 35 36 36
26 26 27 28 28 28 29 30 30 30 31 31 32 32 33 33 34 34 34 33 32 32 32 32 32 32 33 33 33 33 34 35 35 34 34 35 35 35 35 36 36 37 37

GEFSMA_500_meanwind_150.txt.gz
Wind_Speed
11 12 12 12 12 12 11 11 10 9 9 8 7 7 8 8 9 10 11 12 12 13 13 14 15 15 15 15 15 16 15 15 14 15 16 16 18 20 21 21 21 21 20
11 11 12 12 12 12 11 10 10 9 8 7 7 7 7 8 9 10 11 12 13 14 14 14 14 15 16 16 16 16 16 15 15 14 15 15 17 19 22 22 22 21 20
11 11 12 12 12 12 11 10 9 9 8 7 7 6 6 7 8 9 11 12 12 14 14 14 15 15 15 16 17 17 16 16 15 15 14 16 18 18 20 22 22 21 20
11 11 11 12 12 12 11 10 9 8 8 7 7 6 6 7 7 9 10 11 12 13 14 15 15 15 15 16 17 17 17 17 17 16 16 16 18 18 20 20 21 21 20
11 11 11 12 12 12 11 10 9 8 8 7 7 6 6 6 7 8 9 10 10 12 13 15 15 15 16 16 16 17 17 17 18 18 17 18 19 19 20 20 21 21 21
10 11 11 11 11 11 11 10 10 9 8 7 7 6 5 5 6 7 8 9 10 11 13 14 15 15 15 16 16 14 15 17 18 18 19 19 20 20 21 21 22 22 21
10 11 11 11 11 11 11 11 10 10 9 7 7 6 5 5 5 6 6 8 9 10 12 13 15 16 15 15 16 14 15 17 18 19 20 20 20 20 22 22 22 22 22
10 10 11 11 11 11 11 11 11 10 10 8 7 6 6 5 5 5 6 7 8 10 11 12 14 15 16 16 15 15 15 16 18 19 20 21 21 21 22 23 22 22 22
10 10 11 10 10 11 12 12 11 11 10 9 8 7 6 6 5 5 5 6 8 9 10 12 13 15 16 16 16 16 17 18 17 19 20 21 21 21 22 23 23 23 22
10 10 11 11 11 12 12 12 12 11 10 9 9 8 7 6 5 5 5 5 7 9 10 11 13 15 17 17 16 16 17 18 18 18 18 19 20 20 21 24 23 23 22
9 10 11 11 12 12 12 13 12 12 11 10 9 8 7 6 5 4 4 4 5 7 9 11 12 14 16 17 17 17 17 17 18 19 20 20 20 20 20 22 22 23 23
9 10 11 11 12 12 12 13 13 12 12 11 10 9 8 7 6 5 3 3 4 6 7 9 11 13 14 16 17 18 18 18 18 18 20 20 20 21 21 22 23 23 24
8 10 10 11 11 12 12 12 13 12 12 12 11 10 10 8 6 5 4 3 3 4 6 7 9 12 14 15 17 18 18 18 18 18 19 21 22 21 22 23 23 24 23
8 9 10 11 11 12 12 12 13 12 12 12 11 11 10 9 8 6 5 4 4 4 5 7 8 11 13 15 16 17 18 19 19 20 20 21 22 23 23 24 24 24 24
8 9 10 10 11 12 12 12 12 12 12 12 11 11 11 9 8 7 6 6 5 5 6 6 8 10 13 14 16 17 18 19 20 20 21 22 22 23 24 25 24 24 25
8 9 10 10 11 11 12 12 12 12 12 12 12 12 11 10 9 8 7 6 6 5 6 7 8 10 12 14 16 17 18 19 20 21 22 22 23 24 25 25 25 25 26
8 9 9 10 11 11 11 11 11 12 12 12 11 12 12 11 10 9 8 7 7 7 7 7 9 10 11 13 16 17 19 20 21 22 23 24 24 24 26 26 26 27 28
8 9 9 9 10 11 11 11 12 12 12 12 12 12 12 12 11 11 10 10 9 9 8 9 9 10 12 13 15 17 19 20 21 23 24 25 25 26 26 27 27 27 28
9 9 9 10 10 11 11 11 12 12 13 13 12 13 13 13 13 12 12 11 11 11 11 11 11 11 12 14 15 17 19 20 22 23 24 25 26 26 27 28 29 29 29
10 10 10 11 11 11 12 12 13 13 14 14 14 14 14 14 14 14 14 14 13 13 13 13 13 13 14 15 16 18 19 21 22 23 24 25 27 27 28 29 30 31 31
11 11 12 12 12 13 13 14 14 14 15 16 16 16 16 16 16 16 16 16 16 16 16 16 16 16 17 18 19 20 21 22 24 25 26 27 28 29 30 31 32 32 32
13 14 14 14 15 15 15 16 16 17 17 18 18 18 18 18 18 18 18 19 19 19 19 20 20 20 20 21 22 23 23 24 25 27 29 30 31 31 32 33 33 34 35
15 16 16 17 17 18 18 19 19 20 20 21 21 21 21 21 21 21 22 22 22 22 23 23 23 23 24 24 25 26 27 27 28 29 30 32 33 34 34 35 35 35 36
18 18 19 19 20 21 22 22 22 23 23 23 23 23 24 24 24 24 25 25 26 26 26 26 27 28 29 29 29 30 31 31 32 32 34 34 35 36 37 37 37 38 39
21 21 22 22 23 24 25 25 25 25 26 26 26 27 27 27 27 28 28 28 29 29 30 31 31 32 32 33 33 33 34 35 35 35 36 37 38 39 39 39 39 40 41
23 24 24 25 26 27 28 28 28 28 28 28 29 30 30 30 31 31 32 32 33 33 34 34 35 36 36 36 37 37 37 38 38 38 39 40 41 42 42 42 43 43 43

GEFSMA_500_meanwind_156.txt.gz
Wind_Speed
9 10 10 11 11 10 9 8 7 6 6 6 6 6 6 7 8 9 10 11 12 12 13 14 15 15 16 16 17 18 18 18 18 18 18 19 20 20 20 20 20 20 20
9 10 10 11 11 10 9 8 6 6 5 5 5 6 6 7 7 9 9 10 11 12 13 14 15 15 16 16 17 18 18 18 18 19 19 19 20 21 21 21 20 22 21
9 9 10 10 11 10 8 7 6 6 5 5 5 5 6 6 7 8 9 10 11 12 13 14 15 15 15 17 17 18 18 18 18 18 19 20 21 22 21 22 23 23 23
8 9 9 10 10 9 8 7 6 6 5 4 4 5 5 5 6 7 9 10 11 13 13 14 14 15 15 16 17 17 18 18 18 18 19 20 22 22 23 24 24 24 24
8 8 9 9 9 9 8 7 6 5 5 4 4 4 4 4 5 7 8 9 10 12 13 14 14 15 15 16 17 17 18 18 18 17 17 18 20 21 23 25 25 25 25
7 8 8 8 9 8 8 7 6 6 5 4 4 3 3 4 5 6 7 9 10 11 13 14 15 15 16 16 17 17 17 17 17 17 17 18 19 20 21 24 25 26 26
6 7 8 8 9 8 8 7 6 6 5 4 4 3 3 4 4 5 6 8 9 10 12 13 14 15 16 16 17 17 17 18 17 17 17 18 18 19 21 23 24 25 26
6 7 8 8 8 8 8 8 7 6 5 5 4 3 3 3 3 4 5 6 7 9 11 12 13 15 15 16 16 16 16 18 19 18 17 18 18 19 20 21 23 24 25
6 7 8 8 9 9 8 8 7 7 6 5 5 4 3 3 3 3 4 5 6 7 9 10 12 13 15 15 16 15 15 17 18 18 18 19 19 20 21 21 23 24 25
6 6 7 8 9 9 9 9 8 7 7 6 5 4 4 3 3 3 3 4 5 6 8 9 11 12 14 15 16 16 15 16 17 18 19 19 20 20 20 22 23 24 26
6 6 7 8 8 8 9 9 8 8 7 7 6 5 4 4 3 3 2 2 3 5 6 7 10 11 13 14 15 16 16 16 17 19 19 19 19 19 20 21 22 25 26
6 6 7 7 8 8 8 8 8 8 8 7 7 6 5 4 4 3 2 2 2 3 4 6 7 9 12 13 14 15 16 16 17 18 19 20 20 20 20 21 21 23 25
5 5 6 6 7 8 8 8 8 8 8 8 7 6 5 4 4 3 3 2 2 2 3 4 6 7 9 11 13 15 15 16 17 17 18 19 20 20 20 20 21 22 23
4 4 5 6 6 7 7 8 8 8 8 8 8 7 6 5 5 4 4 3 3 4 4 4 6 7 8 9 11 14 15 16 16 17 18 19 20 20 21 21 21 22 23
4 4 5 5 6 6 7 7 8 8 8 7 8 7 6 6 5 5 5 4 4 5 5 5 6 7 8 10 11 13 14 16 17 17 18 19 20 20 21 22 22 23 23
3 4 4 5 5 6 7 7 7 7 7 7 7 7 7 6 7 6 6 6 5 5 6 6 7 8 8 10 11 13 14 16 17 17 18 18 20 21 22 24 24 24 25
4 4 4 5 5 6 6 6 7 7 7 7 7 7 7 7 7 8 7 7 7 7 7 8 8 9 10 10 11 13 14 16 17 18 19 20 21 21 22 23 25 26 27
5 5 5 5 5 6 7 7 7 7 7 7 8 8 9 9 8 9 8 8 8 9 9 9 10 10 11 12 12 14 14 15 17 19 20 21 22 23 23 24 25 26 27
7 6 6 6 6 7 7 8 8 8 8 8 9 10 10 10 10 10 10 10 10 11 11 11 11 11 12 13 14 15 16 17 18 19 21 22 24 25 24 25 26 27 28
8 8 8 7 8 8 8 9 9 10 10 10 11 12 12 12 12 12 12 12 13 13 13 13 13 13 13 14 15 16 17 18 20 21 22 23 25 26 27 27 28 29 30
9 9 9 9 9 10 10 11 11 12 12 13 13 14 14 14 14 14 14 15 15 15 15 15 15 15 16 16 17 18 19 20 21 22 23 25 26 28 29 29 30 31 32
11 10 10 11 11 12 12 13 14 14 15 15 16 16 16 16 16 16 17 17 17 17 18 18 18 19 19 19 19 20 21 22 23 24 25 27 28 29 30 32 33 34 35
11 12 12 13 13 14 15 15 16 17 18 18 18 19 19 19 19 19 19 19 20 20 21 21 21 21 22 22 23 23 24 25 26 27 29 29 31 32 33 34 35 36 36
13 14 14 15 16 16 17 18 19 20 20 21 21 22 22 22 22 22 22 22 23 24 24 24 25 25 25 26 26 27 28 28 29 31 32 33 34 35 35 37 38 38 40
15 15 16 17 18 19 20 21 22 23 23 24 24 24 24 24 24 25 25 26 26 27 27 28 28 28 29 29 30 31 31 32 33 34 35 36 37 38 39 39 40 41 41
17 17 18 19 20 21 23 24 25 26 26 26 26 26 27 27 28 28 28 29 29 30 30 31 31 32 33 33 34 34 35 36 36 37 38 39 40 41 41 41 42 42 43

GEFSMA_500_meanwind_162.txt.gz
Wind_Speed
9 9 9 9 9 9 8 8 7 6 5 5 5 6 6 7 7 8 8 8 9 9 9 10 11 12 13 14 14 14 14 15 16 17 17 17 17 17 17 17 17 16 17
9 9 9 10 9 9 8 7 6 6 5 5 4 5 5 6 6 7 8 8 8 8 9 10 11 12 13 14 14 15 15 15 16 17 17 18 18 17 18 18 18 18 18
9 9 9 10 10 9 8 7 7 6 5 4 4 4 4 4 5 6 7 7 8 8 9 9 10 11 12 13 13 14 14 14 15 16 17 17 18 18 18 18 19 19 19
9 9 9 9 10 9 8 7 7 6 5 4 3 3 3 3 4 5 6 7 8 8 9 9 9 10 11 12 13 13 14 15 15 16 17 18 18 18 19 19 19 20 20
8 9 9 9 9 9 9 8 7 6 5 3 2 2 2 3 4 4 5 6 7 7 8 9 9 10 10 11 12 13 13 14 15 16 17 18 19 20 20 20 20 20 20
8 8 8 9 9 9 9 8 7 6 4 3 2 2 2 2 3 4 4 5 6 7 8 9 9 9 10 11 12 12 12 13 15 16 17 18 19 21 21 21 21 21 20
8 8 8 8 8 8 8 8 7 6 4 3 3 2 2 2 3 4 4 5 5 6 7 8 9 10 11 12 13 13 12 13 15 16 17 17 18 19 20 21 22 21 21
7 7 8 8 8 8 7 7 7 7 5 3 3 3 2 2 2 3 4 4 5 5 6 8 9 10 10 11 13 14 13 14 14 15 14 15 15 16 18 19 20 22 22
6 7 7 7 8 7 7 7 7 7 6 5 4 4 3 2 2 2 3 3 4 4 6 7 8 9 10 11 12 13 13 14 15 16 15 13 14 15 17 17 19 21 22
6 6 7 7 8 7 7 7 7 7 6 5 5 5 4 3 3 3 2 2 3 4 5 6 8 9 9 10 11 12 13 14 15 16 15 14 14 15 15 16 17 18 20
6 6 7 7 7 7 7 7 7 7 7 7 6 6 5 4 4 3 3 2 3 3 4 5 6 7 7 8 9 11 11 12 12 14 14 14 14 15 15 15 15 17 19
5 5 6 6 6 7 7 7 7 7 7 7 7 7 6 5 5 4 4 4 3 3 4 4 5 6 6 7 8 9 9 10 11 13 13 14 14 14 14 15 16 15 16
4 4 5 5 6 6 7 7 7 7 7 7 7 7 7 6 5 5 5 5 4 4 4 4 5 5 6 7 7 8 8 9 11 12 13 13 13 14 15 15 16 16 16
4 4 5 5 6 6 6 7 7 7 7 7 7 7 7 6 6 6 6 6 5 5 5 5 5 5 6 7 8 8 8 9 10 11 12 13 14 14 15 15 16 17 17
4 4 4 5 5 5 5 6 6 7 7 6 6 7 7 7 7 7 7 6 6 6 6 6 6 6 6 7 8 8 9 9 10 11 12 13 13 14 15 16 17 18 19
5 5 4 4 5 5 5 6 6 7 7 6 6 7 7 7 7 8 8 8 7 7 7 8 7 7 8 8 9 9 10 10 11 11 13 14 14 15 16 16 17 19 20
5 5 5 4 5 5 6 6 6 7 7 7 7 7 7 7 8 8 9 9 9 9 9 9 9 9 9 10 10 10 10 11 11 12 13 14 15 16 17 17 18 19 20
6 6 6 5 5 6 6 6 6 7 7 7 7 7 8 8 9 9 10 11 11 11 10 10 10 10 11 11 11 11 11 12 12 13 14 15 16 17 18 18 19 20 21
8 7 7 7 7 7 7 7 7 7 8 8 9 9 9 10 10 11 11 12 12 12 12 12 12 12 12 13 13 13 13 14 14 14 15 17 18 19 20 21 21 22 23
9 8 8 8 8 8 8 8 9 9 10 10 10 10 11 11 12 12 13 13 13 14 14 14 14 14 14 14 15 15 16 16 16 17 17 18 20 21 22 23 24 24 25
9 9 9 8 9 9 9 9 10 10 11 11 11 12 12 13 14 14 15 15 15 16 16 16 16 16 16 16 17 17 18 18 18 19 19 20 21 22 23 25 26 27 27
10 10 10 9 9 10 10 11 11 12 12 13 14 14 15 15 16 16 17 17 18 18 18 19 19 19 19 19 19 20 20 20 20 21 22 22 23 24 25 26 27 29 30
11 11 11 11 11 11 12 12 13 14 14 15 15 16 17 17 18 18 19 19 20 20 21 21 21 22 22 22 22 23 23 23 23 24 24 25 26 27 28 29 30 31 32
12 12 12 13 13 13 13 14 14 15 16 17 18 19 19 20 21 21 21 21 21 22 23 24 24 25 25 25 25 25 25 25 26 27 28 28 29 30 31 31 32 33 34
14 14 14 14 14 15 16 16 17 18 19 20 21 22 22 23 24 23 23 23 24 24 25 26 27 27 28 28 28 28 28 29 29 30 31 31 32 32 33 33 35 35 36
16 16 16 16 17 18 18 19 20 21 21 22 23 24 25 26 26 25 26 26 27 27 28 29 29 30 30 30 31 32 32 33 33 33 34 35 35 35 35 35 37 38 39

GEFSMA_500_meanwind_168.txt.gz
Wind_Speed
7 7 8 8 7 7 7 7 7 6 6 6 6 7 7 7 8 8 8 9 9 10 10 10 11 12 13 14 15 14 14 15 15 15 16 16 16 16 16 16 15 15 14
7 7 7 7 7 7 6 6 6 5 5 4 5 5 5 6 7 8 8 8 9 9 9 10 11 12 12 13 14 14 14 14 15 16 16 16 17 17 17 17 16 16 16
6 7 7 7 7 7 6 6 5 5 4 3 3 4 4 5 6 7 7 7 8 8 9 9 10 11 12 12 13 13 14 15 15 16 16 17 17 17 18 18 17 17 17
6 7 7 7 7 6 6 6 5 4 3 2 2 2 4 4 5 6 6 6 7 8 8 8 9 10 11 12 13 12 13 15 15 16 16 17 18 18 18 18 19 19 19
6 7 7 7 7 6 6 5 5 4 3 1 1 2 3 4 4 5 6 6 6 7 7 7 8 9 10 11 12 12 13 14 15 15 16 17 18 19 19 19 19 20 20
6 7 7 7 7 6 6 5 5 4 2 1 0 1 2 3 4 4 5 5 6 7 7 7 7 8 9 10 11 12 13 13 14 15 16 17 18 19 20 20 20 20 20
6 6 6 6 6 6 6 6 5 4 3 2 1 1 1 2 3 3 4 4 5 6 6 7 7 7 8 9 10 10 11 12 14 15 17 18 18 20 20 20 20 21 21
5 6 5 6 6 6 6 6 5 5 4 3 2 2 1 1 2 2 3 3 4 5 5 7 7 8 8 9 9 9 11 12 12 15 16 18 19 20 21 21 20 20 20
5 5 5 5 5 5 5 5 5 5 4 3 3 2 1 1 1 1 2 2 3 3 4 5 6 7 8 9 9 9 10 12 13 14 15 16 17 19 20 20 20 21 21
4 5 5 4 4 5 5 5 5 5 5 4 4 3 3 2 1 0 1 1 1 2 3 3 4 5 7 8 9 9 10 11 12 13 14 15 16 17 18 19 20 21 21
4 4 4 4 4 3 4 4 5 5 5 4 4 4 3 3 2 1 1 0 1 2 2 3 4 4 5 6 8 9 10 11 12 13 14 14 15 16 16 18 19 20 21
3 3 4 4 3 3 3 3 4 4 4 4 4 3 3 3 3 2 2 1 1 1 2 3 3 4 4 5 6 8 9 10 11 13 13 15 15 15 15 16 17 18 19
1 2 2 3 3 3 3 3 3 3 3 3 3 3 3 3 3 2 2 2 2 2 2 3 3 3 4 5 6 7 8 9 10 10 11 13 14 15 15 16 17 17 17
2 2 2 2 2 2 3 3 3 3 3 3 3 3 3 3 2 2 2 3 3 3 3 3 3 4 5 5 6 7 8 9 9 9 10 12 14 14 15 15 16 16 16
3 2 2 3 3 3 3 3 3 2 2 2 2 2 2 2 2 3 3 4 4 4 4 4 4 5 6 7 7 7 8 10 10 10 10 11 13 14 14 14 15 16 17
4 4 4 4 4 4 4 4 3 3 2 2 2 2 2 2 3 3 4 5 5 5 5 5 6 6 6 6 7 8 9 10 11 11 12 12 13 14 15 16 17 17 18
5 5 5 5 4 4 3 3 3 3 3 3 3 3 3 4 4 4 5 6 6 6 6 7 7 7 8 8 8 9 10 10 11 12 13 14 15 16 16 17 18 19 20
7 6 5 5 4 4 3 3 4 4 4 4 5 5 5 6 6 6 6 7 7 8 8 8 9 9 9 10 10 10 11 12 12 13 14 15 16 17 18 19 20 21 22
8 7 6 5 5 5 4 4 5 5 5 6 6 7 7 7 8 8 8 9 9 9 9 9 10 10 11 12 13 13 13 13 14 15 16 17 17 18 20 21 21 22 23
10 9 7 7 6 6 6 6 6 6 6 7 7 8 8 9 9 10 10 11 11 11 11 11 12 12 13 14 14 15 15 15 16 17 17 18 20 21 22 22 23 24 25
11 11 9 9 8 8 8 8 8 8 8 8 9 9 10 10 11 12 12 12 13 13 13 14 14 15 15 16 17 17 18 18 18 19 20 20 21 22 23 24 25 26 27
12 12 11 10 10 10 10 10 10 10 10 10 11 11 12 13 13 14 14 14 15 15 16 16 16 17 18 19 19 20 20 20 20 21 21 22 23 24 25 26 27 28 29
14 13 12 12 12 12 11 12 12 12 12 12 12 13 13 14 15 15 16 16 17 17 18 19 19 19 20 21 21 21 22 22 22 23 24 24 25 26 26 27 28 29 31
15 14 14 14 13 13 13 14 14 14 14 14 15 15 16 16 17 18 19 19 20 20 21 21 22 23 23 23 23 24 24 25 25 26 26 27 27 27 28 29 30 31 32
17 16 16 16 15 16 16 16 16 16 16 17 17 18 18 19 20 21 21 22 23 23 24 25 25 26 26 26 26 27 27 27 28 29 29 29 29 30 31 31 32 33 34
17 17 17 17 18 18 18 18 19 19 19 19 20 21 21 22 23 23 24 25 25 26 27 27 28 28 28 28 29 29 30 30 31 31 32 32 33 33 32 33 34 35 36

GEFSMA_500_meanwind_174.txt.gz
Wind_Speed
7 7 6 6 6 6 6 6 6 6 5 6 6 6 7 7 8 8 8 8 9 9 9 10 11 11 12 13 13 13 13 13 13 13 13 14 15 15 15 14 14 13 12
7 6 7 7 7 6 6 6 6 5 4 4 5 5 6 7 7 8 8 8 8 8 8 9 10 11 12 12 13 13 13 13 13 13 13 13 14 15 15 15 15 15 14
6 6 7 7 7 6 6 6 5 5 4 3 3 4 5 6 7 7 7 7 8 8 8 8 10 11 11 12 13 13 13 13 13 13 14 14 14 15 16 16 16 16 16
6 6 6 7 6 6 5 5 4 4 3 2 2 3 4 5 6 6 6 7 7 8 8 8 9 10 11 11 12 12 13 14 13 14 14 15 15 15 16 17 17 17 17
6 6 6 6 6 5 5 4 4 4 3 2 1 2 4 5 5 6 6 6 7 8 8 8 9 10 11 12 12 13 13 13 13 14 14 15 16 16 17 17 18 18 18
6 5 5 6 6 5 5 5 4 4 3 2 1 1 3 4 4 4 5 5 6 6 8 8 8 9 10 11 12 12 13 13 13 13 14 15 16 17 17 17 18 19 19
5 5 5 5 5 5 5 4 4 3 3 2 1 1 2 3 4 4 4 4 5 5 6 8 8 9 9 10 11 12 13 14 14 14 15 16 17 17 18 18 19 19 19
4 4 4 5 4 5 4 4 4 4 3 2 1 0 1 2 3 3 3 3 4 4 5 7 8 8 9 9 10 11 12 13 13 14 15 15 17 18 19 19 19 20 20
4 4 4 4 4 4 4 4 4 4 4 3 2 1 1 2 2 3 3 3 3 3 4 5 7 8 8 9 10 11 12 12 13 14 15 16 16 17 19 20 20 20 20
3 3 3 3 4 4 4 4 4 4 3 3 2 2 1 1 1 2 2 3 3 3 3 4 5 6 8 9 10 11 12 12 13 14 15 15 17 18 19 20 20 20 20
2 3 3 3 3 4 4 4 4 3 3 2 2 2 2 1 0 1 2 2 3 3 4 4 5 6 7 8 9 10 11 11 12 13 14 15 15 16 18 19 20 20 20
2 2 2 2 3 3 4 3 3 3 3 3 2 2 1 1 0 0 1 2 2 3 4 5 5 6 6 7 8 9 9 10 10 12 12 13 14 15 16 18 19 19 20
2 2 3 3 3 3 3 3 3 3 3 2 2 2 2 1 1 1 2 2 2 3 4 5 5 6 6 6 7 8 8 9 10 11 12 13 14 14 15 17 18 19 19
3 3 3 3 3 3 4 4 3 3 3 3 3 3 2 2 2 2 3 3 3 4 4 5 6 6 6 7 7 8 9 10 11 11 13 13 13 13 14 16 17 18 19
4 4 4 4 4 4 4 4 4 4 4 3 2 3 3 2 2 3 3 4 4 5 5 6 6 7 7 7 8 9 10 10 11 12 12 13 14 13 14 16 18 18 19
4 5 5 5 5 5 5 5 4 4 3 3 3 3 3 3 4 4 5 5 6 6 6 6 7 7 7 8 9 10 10 11 12 12 13 14 14 15 15 17 19 19 19
5 6 6 6 6 6 6 5 5 4 4 3 3 4 4 4 4 5 6 6 7 7 7 7 7 8 8 9 10 11 12 12 13 13 14 14 15 16 17 17 19 21 20
7 7 7 7 7 7 6 6 5 5 5 5 5 5 5 5 6 6 7 8 8 8 8 9 9 9 10 11 12 12 13 14 14 15 16 16 17 17 18 19 20 22 22
9 8 8 8 8 7 7 7 7 6 6 6 6 6 7 7 8 8 9 9 10 10 10 11 11 11 12 12 13 13 14 15 16 17 18 19 19 20 20 20 21 23 23
10 10 10 10 9 9 8 8 8 8 8 8 8 9 9 10 10 10 11 11 11 12 12 13 13 13 14 14 15 15 15 16 17 18 19 20 21 21 22 22 23 24 25
12 11 11 11 11 11 10 10 10 10 9 10 10 11 11 12 12 12 13 13 13 14 14 14 15 15 16 16 17 18 18 18 19 19 20 21 21 22 23 24 25 26 27
14 13 12 12 12 12 12 11 12 11 11 12 12 12 13 13 14 14 15 15 15 15 16 16 17 17 18 19 19 20 21 21 22 22 22 23 23 24 25 25 25 26 28
15 15 14 13 13 14 14 13 13 13 14 14 14 14 15 15 15 15 15 16 17 17 18 18 18 19 20 21 22 23 23 24 24 25 25 25 25 26 27 27 28 28 29
17 16 15 15 16 16 16 16 16 16 17 17 17 17 17 17 18 17 17 18 19 19 19 20 21 21 22 23 24 25 26 27 27 28 28 28 28 28 29 29 30 30 31
17 17 17 17 17 18 18 18 18 18 18 19 19 19 19 19 19 20 20 21 21 22 22 23 24 24 25 26 27 27 28 29 30 30 30 31 30 31 31 32 32 32 33
18 19 19 19 20 19 20 19 20 21 21 21 21 21 22 22 22 22 23 24 24 25 25 25 26 27 28 29 30 30 31 31 32 32 32 33 33 33 33 34 34 34 35

GEFSMA_500_meanwind_180.txt.gz
Wind_Speed
5 6 5 5 5 5 5 5 6 6 6 6 6 6 7 8 9 9 9 9 9 11 11 12 12 12 13 13 13 14 15 15 15 15 15 15 16 16 17 16 15 14 13
5 6 5 5 5 5 5 6 6 6 6 6 6 6 7 8 8 9 9 9 9 10 11 11 11 11 11 12 13 14 15 14 15 15 15 15 16 16 17 17 16 15 15
5 5 5 5 5 5 6 6 6 6 5 5 5 6 7 7 7 8 8 8 9 9 10 10 10 10 10 11 12 13 13 14 14 14 14 15 15 15 16 17 16 16 16
5 5 5 5 5 5 6 6 5 5 4 4 5 5 6 6 7 7 8 8 8 8 9 9 9 9 10 11 11 12 13 13 14 14 14 15 15 15 16 16 16 16 16
5 5 5 5 5 5 5 5 4 4 3 3 3 4 5 6 6 7 7 7 8 9 9 9 9 9 10 10 11 12 12 13 13 13 14 14 15 15 16 17 17 17 17
4 4 5 5 5 5 5 4 3 3 3 2 2 3 4 5 5 6 6 7 8 9 9 9 10 10 10 10 11 11 12 13 13 14 15 15 15 15 16 17 18 18 18
4 4 4 5 4 4 4 3 3 3 3 2 2 3 4 4 4 5 6 7 7 8 9 9 10 10 11 11 12 12 13 14 14 14 15 15 15 16 16 17 18 19 19
5 4 4 4 4 3 3 2 2 3 3 2 2 3 3 4 4 4 5 6 7 7 8 8 9 10 11 11 12 13 14 14 15 16 16 17 17 16 17 17 18 19 20
4 3 3 3 3 2 2 2 2 2 2 1 1 2 3 3 4 4 5 5 6 7 7 8 9 10 11 11 11 12 14 14 15 16 16 17 18 18 18 18 18 18 19
3 3 3 3 2 2 2 2 2 2 2 1 1 1 2 3 4 4 4 5 6 6 7 8 8 9 11 11 12 13 14 15 15 16 17 17 18 19 19 19 19 19 20
3 3 3 3 2 2 2 3 2 2 2 1 1 1 1 2 3 4 5 5 6 6 6 7 8 9 10 11 11 13 14 14 15 15 16 17 17 18 18 18 19 20 20
4 4 3 3 3 3 3 2 2 1 1 1 1 1 2 2 3 4 4 5 6 6 6 7 8 9 10 11 11 12 12 13 14 15 15 16 17 18 18 19 20 20 20
5 4 4 4 4 4 3 2 2 2 2 2 2 2 2 3 3 3 4 4 5 6 6 7 8 8 9 10 11 11 11 12 13 13 14 15 16 17 18 19 20 21 20
5 5 4 4 4 4 5 4 4 3 3 3 3 3 3 3 3 3 3 3 4 5 6 7 8 9 9 10 10 11 11 12 12 12 12 14 15 16 17 17 18 20 20
6 5 5 5 4 4 3 3 3 4 4 4 4 3 4 4 3 4 4 4 5 5 6 7 7 8 9 10 11 11 12 12 12 12 12 13 14 15 15 15 17 19 20
7 7 6 6 5 4 4 4 4 5 5 5 5 5 5 5 5 5 5 5 6 6 7 7 8 8 9 10 11 11 12 12 12 12 13 14 15 15 15 15 17 18 19
9 8 7 6 6 6 6 6 6 6 6 6 6 6 6 6 6 6 7 7 8 8 9 9 10 10 11 11 11 12 12 13 13 14 14 15 16 17 17 17 18 19 21
10 9 8 7 7 7 7 7 7 7 6 6 6 7 7 7 8 8 9 9 9 10 11 11 12 12 13 13 13 14 14 14 15 15 16 16 17 18 19 19 20 21 22
10 9 9 8 8 8 8 8 8 8 8 8 8 8 8 8 9 10 11 11 11 12 13 13 13 14 15 15 15 16 16 17 18 18 18 19 19 20 20 21 22 23 24
11 11 10 10 10 9 10 10 10 10 9 9 9 10 10 10 11 11 12 13 14 14 15 15 15 16 17 17 17 17 18 19 19 20 20 20 21 21 22 23 23 24 25
13 12 12 11 11 11 11 11 11 11 10 10 11 11 12 12 13 14 14 15 15 15 16 16 17 17 17 18 18 19 20 20 21 22 22 22 23 23 24 24 25 25 26
14 13 13 13 13 13 13 12 12 12 12 12 12 13 13 14 15 15 16 17 17 17 17 18 18 19 19 20 20 20 21 22 22 23 24 25 25 25 26 26 27 27 28
15 15 15 15 15 15 15 15 15 15 15 15 15 15 16 16 16 17 17 18 18 18 19 19 19 20 20 20 21 21 22 23 24 25 26 26 27 27 27 28 28 29 30
16 16 15 16 17 17 17 16 17 17 18 18 18 18 18 18 18 19 19 19 19 19 20 20 21 22 22 23 24 24 24 25 26 27 28 29 29 29 30 31 31 31 32
17 17 17 17 17 18 18 18 19 19 20 20 20 20 20 20 21 21 21 21 21 22 22 23 23 24 25 26 27 27 27 29 29 30 31 31 31 31 32 33 34 34 34
18 18 18 19 19 20 20 20 20 21 21 21 22 22 22 22 22 22 22 23 24 24 25 25 26 27 27 29 30 30 30 32 32 33 33 33 33 33 34 35 36 36 36

GEFSMA_500_meanwind_186.txt.gz
Wind_Speed
6 6 6 6 6 6 7 7 6 6 6 6 6 6 6 6 6 6 7 7 8 9 9 9 10 11 11 11 12 13 13 13 13 12 13 13 13 12 12 12 12 13 13
6 6 6 6 6 7 7 7 7 6 6 5 6 6 6 6 7 7 7 7 8 8 9 9 9 10 10 11 12 12 12 12 13 13 13 13 13 13 13 13 13 13 13
6 6 6 6 7 7 8 7 6 6 6 6 6 6 6 6 6 6 7 7 7 7 7 8 9 10 10 11 12 13 13 13 13 13 13 13 13 14 14 14 14 14 14
6 6 6 7 7 7 7 7 6 6 6 6 6 6 6 5 5 5 6 6 6 6 6 7 8 9 10 11 12 13 13 13 13 13 13 13 13 14 14 14 15 15 14
6 6 6 7 7 7 7 7 7 6 6 5 5 5 5 4 5 5 5 5 5 6 6 7 7 7 8 9 11 12 12 12 12 12 12 12 13 13 14 14 15 15 15
6 6 6 7 7 7 7 6 6 6 6 5 4 4 4 4 4 4 5 5 5 6 7 7 7 6 6 7 9 11 11 12 12 12 13 13 13 14 14 14 15 16 16
6 6 6 7 7 6 6 6 6 6 6 5 4 4 3 3 4 4 5 5 5 6 7 7 7 7 7 7 8 10 11 11 12 13 14 14 14 15 14 15 15 15 16
6 6 6 6 6 6 6 6 6 5 5 4 4 3 3 4 4 4 4 4 5 5 6 7 7 8 9 8 8 10 10 11 12 13 14 14 15 15 15 15 15 16 16
6 6 6 5 6 6 6 6 6 5 4 4 4 4 4 4 3 4 4 4 5 5 6 7 7 7 8 10 10 10 10 12 12 13 14 14 15 15 16 16 16 17 17
6 6 6 6 6 6 6 6 6 5 4 4 3 3 4 4 3 4 4 5 5 5 6 7 6 7 7 8 9 10 11 11 12 14 15 16 16 17 16 16 17 18 18
7 6 6 6 6 6 6 6 5 5 5 4 4 4 4 4 4 5 5 5 5 6 6 7 6 7 7 8 9 10 12 13 14 15 16 16 17 17 17 18 18 18 19
7 6 6 6 6 6 6 5 5 5 5 5 5 5 5 5 5 5 6 6 6 6 7 7 7 7 7 9 10 11 12 13 14 15 16 16 17 18 18 18 19 19 20
7 7 7 6 6 6 6 6 6 6 5 5 6 6 6 6 6 6 6 6 6 6 6 6 6 7 7 9 10 11 12 13 14 15 15 16 17 18 19 19 19 20 21
7 6 6 6 6 6 6 6 6 6 6 6 7 6 6 7 7 7 6 6 6 6 6 6 7 8 9 10 11 11 11 12 13 14 15 15 16 17 17 18 19 20 20
7 7 7 7 7 6 6 6 6 6 7 7 7 6 7 7 6 6 6 6 7 8 8 8 8 9 10 10 11 11 11 11 12 13 14 14 15 15 16 17 18 18 18
8 7 7 7 7 7 7 6 7 7 7 7 7 7 7 6 6 7 7 8 8 8 9 9 10 10 11 12 12 12 12 12 13 13 13 14 15 15 16 17 17 17 18
9 8 7 7 7 8 8 7 7 7 8 8 8 7 7 7 7 7 8 9 9 10 10 11 12 12 13 13 14 14 14 14 14 14 15 15 15 16 17 18 18 19 19
9 9 8 8 8 8 8 8 8 9 9 9 8 8 8 8 9 9 9 10 11 11 12 12 13 14 14 15 15 15 15 16 16 16 16 16 17 17 18 19 19 20 20
11 11 10 10 10 9 8 9 9 10 10 9 9 9 10 10 10 11 11 11 12 12 13 14 15 15 16 17 17 17 16 17 18 19 18 18 18 18 19 20 20 21 22
12 12 11 11 11 10 10 10 10 11 11 10 11 11 11 11 11 12 13 13 13 14 15 16 16 17 17 18 18 18 18 18 19 19 20 20 19 20 21 21 22 23 24
13 13 12 12 12 11 12 12 12 12 12 12 12 12 12 13 13 14 14 14 15 16 17 17 17 18 18 18 18 19 19 19 20 20 20 20 20 21 22 23 24 25 26
14 15 13 13 13 13 13 13 14 13 13 13 13 14 14 14 15 15 16 16 17 17 18 18 19 19 19 19 19 20 21 21 21 22 23 22 23 23 25 26 27 28 29
14 14 14 14 14 14 14 15 15 15 16 16 16 16 16 16 17 17 17 18 19 19 20 20 20 20 21 21 21 22 23 24 25 25 25 25 26 27 28 29 30 31 32
15 15 15 15 16 16 16 16 17 17 17 18 18 18 18 18 19 19 20 20 20 21 21 22 22 22 23 24 24 26 27 27 28 27 27 27 28 29 29 31 32 33 34
16 16 17 17 18 18 19 19 19 19 19 19 20 20 20 20 20 21 22 22 22 23 23 24 24 24 26 27 28 29 29 29 29 29 30 30 30 31 32 32 34 34 35
16 17 18 19 19 19 20 20 20 20 20 21 21 21 22 22 22 23 24 24 24 25 25 26 27 28 29 30 31 31 31 31 31 31 32 32 33 33 34 35 36 36 37

GEFSMA_500_meanwind_192.txt.gz
Wind_Speed
3 3 3 4 5 5 5 5 5 6 6 6 6 6 6 6 6 7 8 8 8 9 10 10 11 11 11 12 12 12 12 13 12 12 12 12 12 13 13 13 13 13 13
4 3 4 4 5 5 5 5 5 5 5 5 5 5 5 5 6 7 8 8 9 9 9 9 9 10 10 10 11 11 12 12 13 12 13 12 13 13 13 13 13 13 13
4 4 4 4 5 5 5 5 5 5 5 5 5 5 5 5 6 6 7 7 8 8 8 8 8 9 10 10 10 11 11 11 12 13 13 13 13 13 13 13 14 14 14
4 4 4 4 5 5 4 4 5 5 5 5 5 5 5 5 5 6 6 7 7 7 7 7 8 8 9 10 11 11 11 12 13 13 14 14 14 14 14 14 14 15 14
4 4 4 4 5 5 4 4 5 6 6 5 5 5 5 5 6 6 6 6 7 7 7 7 8 8 9 10 11 12 12 12 13 14 14 14 14 14 15 14 14 14 15
5 4 4 4 5 5 4 5 6 6 6 6 5 5 4 4 5 6 6 6 6 7 7 7 8 8 9 9 10 11 12 12 13 14 14 14 14 15 15 15 15 15 15
5 5 5 5 5 4 4 5 6 6 6 5 5 4 4 4 5 6 6 6 6 7 7 8 8 9 10 10 11 12 12 12 12 13 14 14 15 15 16 16 16 16 16
6 6 5 5 5 4 4 5 6 6 5 5 4 4 4 4 4 5 5 5 6 7 7 7 8 10 11 11 12 13 13 12 13 13 14 15 16 16 16 16 16 16 16
6 6 5 4 4 4 5 5 6 6 5 5 4 4 4 4 4 4 5 5 6 6 7 7 8 9 10 11 11 12 13 14 14 14 14 15 15 15 16 17 17 18 18
6 6 5 5 4 4 5 5 5 5 5 5 4 4 4 4 4 4 4 5 5 6 6 7 7 8 8 9 10 11 12 13 14 15 14 14 15 15 16 17 18 18 18
6 6 5 5 4 4 5 5 5 5 5 4 4 4 4 4 5 5 5 5 6 6 6 7 7 7 7 8 9 10 11 13 14 14 15 16 16 17 17 18 18 19 20
5 5 5 5 5 5 5 5 5 5 5 4 4 5 5 5 5 5 6 6 6 7 7 8 7 7 7 8 9 10 11 13 14 15 16 17 17 18 19 19 20 20 21
5 5 5 5 5 6 6 6 5 5 5 5 5 5 6 6 6 6 7 7 7 8 8 8 8 7 8 8 9 11 12 13 14 15 16 16 18 19 19 20 20 21 21
6 6 6 6 6 6 6 5 5 5 5 5 5 5 6 7 7 7 7 7 7 7 7 7 7 8 8 9 9 10 11 12 14 15 16 16 17 18 19 20 20 21 21
7 7 7 7 6 6 6 5 6 6 5 5 5 5 6 7 7 7 7 7 7 7 7 7 8 9 9 9 10 10 10 12 13 14 15 16 17 17 18 19 20 20 21
7 7 6 7 6 6 6 6 6 6 6 6 6 6 7 7 7 7 7 8 8 8 9 9 9 10 10 10 11 11 12 12 13 14 15 16 16 17 19 20 20 20 21
8 7 7 7 7 7 7 7 7 7 7 7 7 8 8 8 8 8 8 9 9 9 10 10 10 11 12 13 13 13 13 14 14 15 15 16 17 18 19 20 21 22 21
9 8 8 8 8 8 8 8 7 7 7 8 8 9 9 9 9 10 10 10 10 11 11 12 12 13 13 13 14 14 15 15 15 16 16 17 17 18 19 20 21 23 23
11 10 10 10 10 9 9 9 9 8 9 9 10 10 10 11 11 12 12 12 12 12 12 13 14 14 14 15 15 15 15 15 16 17 17 18 18 19 19 20 21 22 23
11 11 10 11 11 11 11 10 10 10 10 11 11 12 12 12 12 12 13 13 13 13 14 14 15 15 16 16 16 15 15 16 17 18 18 19 20 20 21 22 23 24 25
12 12 11 11 12 13 12 12 12 12 12 13 13 13 13 13 13 13 13 14 15 15 15 16 16 16 17 16 16 17 17 18 19 20 21 22 23 24 25 26 26 27 28
12 12 12 13 14 14 14 14 14 15 15 15 15 15 15 15 15 15 15 16 16 17 17 17 18 18 18 19 19 20 20 21 22 24 25 25 27 27 28 29 29 30 31
13 14 13 14 15 15 15 15 16 16 16 17 17 16 17 17 18 18 18 18 18 18 19 20 20 21 21 22 22 24 25 25 26 27 28 29 30 30 31 31 32 33 33
14 15 15 15 15 16 16 17 17 17 18 18 18 18 18 19 19 19 20 20 21 21 21 22 22 23 24 25 26 27 28 29 30 31 31 32 33 33 34 35 36 36 36
16 16 16 16 16 17 17 18 18 18 19 19 20 20 20 20 20 21 21 22 22 23 23 24 25 26 26 27 28 29 30 31 32 33 34 35 35 35 35 36 36 37 37
17 16 17 17 17 17 18 19 19 20 20 21 21 22 22 22 22 22 22 23 24 25 25 26 27 28 29 30 31 32 33 33 34 35 35 35 35 35 35 35 36 36 36

GEFSMA_500_meanwind_198.txt.gz
Wind_Speed
6 6 6 6 6 7 7 7 7 7 7 7 7 7 7 7 7 7 7 8 9 10 11 11 11 11 12 12 12 12 12 12 12 12 12 12 11 11 12 12 12 12 12
5 5 6 6 7 7 7 7 7 7 8 7 7 7 7 7 7 7 7 8 8 9 11 11 11 11 11 12 12 12 12 12 12 11 12 12 12 12 12 13 12 13 14
5 6 7 6 7 7 7 7 7 7 7 7 7 7 7 6 6 7 7 8 8 9 10 10 11 11 11 11 11 12 12 12 12 12 12 13 13 13 13 13 13 14 14
6 6 7 7 7 7 7 7 7 8 8 7 7 7 7 6 7 7 7 7 8 9 9 8 10 10 10 11 11 12 12 13 13 13 13 14 14 14 14 14 14 14 14
7 7 7 7 6 6 7 7 7 8 8 8 7 7 7 7 7 7 7 7 8 8 8 8 9 10 10 10 11 11 12 13 13 13 14 14 15 15 15 15 15 15 15
7 7 7 7 6 6 6 6 7 8 7 7 7 7 7 7 7 7 7 7 7 8 8 9 9 9 11 11 11 11 12 13 13 14 15 15 15 16 16 16 16 17 17
8 7 7 6 6 6 6 7 7 7 7 7 7 7 7 7 7 7 7 7 7 8 8 9 10 10 11 11 11 12 12 14 13 14 15 15 15 16 16 17 17 18 18
7 7 7 6 6 6 6 6 7 8 7 7 7 7 7 7 7 7 7 7 8 8 9 10 11 11 12 12 13 13 13 14 14 14 14 15 16 16 17 17 17 18 19
8 8 8 7 7 7 7 7 7 8 8 7 7 7 7 7 7 6 7 7 8 9 9 9 10 11 12 12 13 14 14 14 14 15 16 16 16 16 17 18 17 18 18
8 8 8 8 7 7 7 7 7 8 8 8 7 7 7 7 7 6 7 8 8 9 9 9 10 12 13 13 13 14 14 14 15 16 16 17 18 18 18 19 19 19 19
9 8 8 8 7 7 7 7 7 8 8 8 8 7 7 7 7 7 8 9 9 10 10 10 11 12 13 14 14 15 15 16 16 16 17 17 18 19 19 19 20 20 20
9 8 8 8 8 7 7 7 8 8 8 8 8 8 7 8 8 9 9 9 10 10 11 12 12 12 13 14 14 15 16 16 16 16 17 17 18 19 20 20 21 21 22
9 8 8 8 8 7 7 8 8 8 8 8 8 7 7 8 8 9 9 9 10 10 11 12 12 12 12 12 13 13 14 16 16 17 18 19 19 20 20 21 21 22 23
9 9 8 8 8 8 8 8 9 9 9 9 8 8 8 8 9 9 10 10 11 11 11 12 11 11 11 11 11 12 13 14 15 16 17 18 19 20 20 21 21 21 22
10 9 9 9 8 8 8 8 8 8 8 9 9 8 9 9 10 10 10 11 11 11 11 11 11 11 11 11 11 12 13 14 15 16 16 17 17 18 19 20 21 22 22
10 9 9 9 9 9 9 8 8 8 8 8 8 9 9 10 10 11 11 12 12 11 11 11 11 11 11 11 12 12 13 14 14 14 15 16 16 17 18 19 21 22 22
10 9 10 9 9 9 9 9 9 9 9 10 10 10 10 11 11 12 12 12 12 12 12 12 11 12 12 12 12 13 14 14 15 14 15 16 16 17 17 19 20 22 23
10 10 11 10 10 10 10 10 9 10 10 11 11 11 11 11 12 12 13 13 13 14 14 13 13 13 14 14 14 15 16 16 16 15 16 16 17 18 19 20 22 23 24
11 11 11 11 10 10 11 11 11 11 11 12 11 12 13 13 13 13 14 14 14 15 15 15 15 15 16 16 16 17 17 17 17 17 18 18 19 20 21 22 23 23 24
12 12 11 11 11 11 11 12 12 13 13 13 13 14 15 15 15 15 15 15 16 16 16 16 16 17 17 17 17 18 18 18 19 20 20 21 21 22 23 24 25 25 25
13 12 12 12 12 13 14 14 14 14 14 14 14 15 15 16 16 16 16 17 17 17 17 17 17 18 18 18 18 19 19 20 21 21 22 23 24 24 25 26 27 28 28
13 13 12 13 13 14 15 15 15 15 16 16 16 16 16 17 17 17 17 18 18 19 19 19 20 20 20 21 21 22 22 23 23 24 24 25 26 27 28 29 30 30 31
14 14 14 14 14 15 15 16 16 17 17 17 17 17 18 18 19 19 20 20 20 20 21 21 22 22 23 24 24 24 25 26 26 27 27 27 28 29 30 31 32 32 33
16 16 15 15 16 16 16 16 16 17 18 18 18 18 19 19 20 21 21 21 21 21 22 23 23 24 25 25 26 27 28 28 29 30 30 30 31 31 32 33 33 33 34
17 16 16 16 16 17 17 17 17 17 18 18 19 19 19 20 21 21 22 22 23 23 24 24 25 26 27 28 29 30 30 31 31 31 32 32 33 33 33 34 34 35 35
17 17 17 17 17 17 18 18 18 18 18 19 19 20 20 21 22 22 23 23 24 25 26 27 27 28 29 30 31 32 32 32 32 32 33 34 34 35 35 35 36 37 37

GEFSMA_500_meanwind_204.txt.gz
Wind_Speed
5 5 5 5 6 6 6 6 6 6 6 6 7 7 7 7 8 8 9 10 11 11 11 11 11 11 11 11 12 12 12 12 12 12 12 12 13 13 13 13 13 12 12
6 6 6 6 6 7 7 7 7 7 7 6 6 7 7 7 8 8 8 9 10 11 11 11 11 12 11 12 12 12 12 12 13 13 13 12 13 13 14 13 13 14 13
6 6 6 6 6 7 7 7 7 7 6 6 6 7 7 7 8 9 9 9 10 11 12 12 11 12 12 12 12 13 13 13 13 14 14 14 14 14 14 14 14 14 14
7 7 6 7 7 7 7 7 7 7 7 7 7 7 7 8 8 8 9 9 10 10 11 12 12 12 12 12 13 13 13 14 14 15 14 14 14 15 15 15 15 15 15
7 7 7 7 8 7 8 8 7 7 7 7 7 7 8 8 8 9 9 9 10 10 11 12 12 11 12 12 13 13 13 13 14 15 15 14 14 15 16 16 16 16 17
8 8 7 7 8 8 8 8 7 7 7 7 7 8 8 8 9 9 9 9 9 10 10 11 11 11 11 12 13 12 13 13 13 14 14 14 14 15 16 17 17 17 18
8 8 8 8 8 8 8 7 7 7 7 7 8 8 8 8 9 9 10 9 9 9 9 10 11 11 11 12 12 12 14 13 14 15 15 15 15 16 17 17 17 17 18
9 9 9 8 8 7 7 7 7 6 7 7 8 8 8 8 9 9 9 9 9 9 9 10 11 12 12 13 13 13 13 13 14 14 15 16 16 16 16 16 17 17 17
10 9 9 8 8 8 7 7 7 6 7 7 8 8 8 8 9 9 9 9 9 10 10 11 11 12 13 14 14 14 14 15 15 15 16 16 16 17 17 18 18 18 18
10 9 9 9 8 8 7 7 7 7 7 7 8 8 8 8 9 9 8 9 9 9 10 10 11 12 12 13 14 15 14 15 16 16 16 17 18 18 18 19 19 19 19
11 10 9 9 9 8 8 8 7 7 7 7 8 8 8 8 8 8 8 8 9 9 10 11 12 12 13 13 15 15 15 15 16 16 16 17 18 19 19 19 19 19 19
11 10 9 9 9 8 8 8 7 7 7 8 8 8 8 8 8 8 9 9 9 10 11 12 13 13 14 15 15 15 16 16 16 16 16 17 17 18 19 19 20 20 21
11 10 9 9 8 8 8 8 8 8 8 8 8 8 8 8 8 9 9 9 9 10 11 11 12 13 13 13 14 14 15 16 17 17 17 17 18 19 19 19 20 20 21
10 9 9 9 8 8 8 8 8 9 9 9 9 9 9 9 9 9 9 9 10 11 11 12 13 14 14 14 14 15 15 16 16 16 16 17 18 18 19 19 20 20 20
10 10 10 9 9 9 9 8 9 9 10 10 10 10 10 10 10 10 11 11 11 11 12 12 13 14 14 14 14 14 14 14 15 16 17 17 18 18 19 19 20 20 20
10 10 10 10 10 10 9 9 9 9 10 10 10 10 11 11 12 12 12 12 12 12 13 13 14 14 13 13 13 13 14 14 15 16 17 17 17 18 18 19 19 20 21
11 11 11 11 11 11 10 10 10 10 10 10 11 11 12 12 12 12 13 12 13 13 14 14 13 13 13 13 14 14 14 15 16 17 17 17 17 18 18 19 19 20 21
12 12 12 11 11 11 11 11 10 10 10 11 11 12 12 13 13 13 13 13 13 13 14 14 14 14 14 14 14 15 15 16 16 17 17 18 18 18 19 20 20 22 23
12 12 11 11 11 11 11 11 11 10 11 11 12 12 12 13 13 14 14 14 14 15 15 15 14 14 14 15 15 15 16 17 18 19 19 19 19 20 21 22 23 23 24
13 13 12 12 12 12 12 12 11 11 12 13 13 13 13 14 14 14 14 14 15 15 15 15 15 15 15 16 16 17 18 19 20 21 21 21 21 22 23 24 25 26 27
14 14 13 13 13 13 13 12 12 12 12 13 13 13 14 14 14 14 14 14 15 15 16 16 17 17 17 18 18 19 20 21 22 22 23 23 23 25 26 27 28 29 30
14 14 14 14 14 14 14 14 14 13 13 13 13 14 14 14 14 14 14 15 15 16 17 17 18 19 20 20 21 22 23 23 24 25 25 26 27 28 28 29 30 31 31
14 14 14 14 15 15 14 14 14 13 13 14 14 14 14 14 14 14 15 15 16 16 17 18 19 20 21 22 23 24 25 25 26 26 27 28 29 30 30 30 31 31 32
14 14 14 14 14 15 14 14 15 14 14 14 15 15 15 14 15 16 17 17 18 18 19 20 21 22 23 24 25 26 26 27 28 29 30 30 30 31 32 32 33 34 34
15 15 14 15 15 15 15 14 14 14 14 15 15 15 16 16 16 17 18 19 19 20 21 22 23 24 26 27 27 28 29 29 30 29 30 31 31 32 33 34 35 36 37
16 16 16 16 16 16 16 16 16 16 16 16 16 16 16 17 18 18 19 20 21 22 23 24 25 27 27 28 29 30 31 31 31 31 31 32 33 34 35 35 36 37 38

GEFSMA_500_meanwind_210.txt.gz
Wind_Speed
7 6 6 6 6 7 7 8 8 9 8 8 8 9 9 9 9 10 10 11 11 11 11 11 11 11 11 11 11 11 12 11 11 12 13 13 12 12 12 13 12 12 13
7 7 7 7 7 7 8 9 9 9 9 9 9 9 9 9 10 10 10 11 11 11 11 11 12 11 10 11 11 11 12 12 12 12 13 13 13 13 13 13 13 13 13
8 8 7 7 8 8 9 9 9 8 9 9 10 10 10 10 10 10 10 10 10 11 11 11 12 11 11 11 11 12 12 12 13 13 13 13 14 14 13 13 13 14 14
8 8 7 7 8 9 9 9 9 9 9 10 10 10 10 10 10 10 10 10 10 10 10 11 11 11 11 11 11 11 12 11 12 13 13 13 14 14 14 14 15 15 15
8 8 8 9 9 9 9 8 9 9 10 10 10 10 10 10 11 11 11 10 11 11 11 11 11 11 11 11 12 11 12 13 13 13 13 14 14 14 14 15 15 16 16
8 9 9 9 9 9 9 9 9 9 10 10 10 10 10 10 11 11 11 11 11 11 11 11 11 11 10 10 11 12 12 12 13 13 13 14 14 14 14 14 15 16 16
8 8 9 9 9 9 9 9 9 9 9 10 10 10 10 11 11 12 11 11 11 11 12 12 11 10 10 10 10 11 12 13 13 13 14 14 14 14 15 15 15 15 16
9 8 9 9 9 9 9 9 9 9 9 10 10 10 11 11 11 11 11 11 12 11 11 11 10 10 11 10 11 12 13 13 14 14 14 15 15 15 15 15 15 15 16
10 10 9 9 9 9 9 9 9 9 9 10 10 11 10 10 10 10 10 11 11 11 11 11 11 11 12 12 12 12 13 14 14 15 15 15 16 16 16 16 16 17 16
11 11 10 10 10 9 9 9 9 9 9 10 10 10 10 10 10 10 10 10 10 10 10 11 11 12 12 12 13 13 14 14 14 14 15 15 15 15 15 15 16 16 17
11 12 11 11 11 10 10 10 10 10 10 10 10 10 10 10 11 10 11 11 10 10 11 11 11 12 12 12 13 13 13 13 13 14 14 14 15 15 15 15 16 16 17
12 12 11 11 11 11 10 10 9 10 10 10 10 10 10 10 10 11 11 11 11 10 11 11 11 12 12 12 12 12 13 13 14 14 14 14 15 15 16 16 17 17 17
11 12 11 11 11 11 10 9 10 10 10 10 10 10 10 10 10 11 11 12 11 12 12 12 12 12 11 11 11 12 12 13 14 14 15 15 15 16 16 18 18 18 17
12 11 11 11 11 11 11 10 10 10 10 10 10 10 10 10 11 12 12 12 12 12 13 13 13 13 12 12 12 12 13 13 13 14 15 15 16 16 17 18 19 19 19
12 12 12 11 11 11 11 10 11 11 11 11 11 11 10 11 12 12 12 12 13 13 13 14 14 14 13 13 13 13 13 13 14 15 15 16 16 17 18 18 19 19 20
12 12 13 12 12 12 11 10 10 10 11 11 11 11 11 11 11 12 12 12 13 13 14 14 14 14 14 14 13 13 14 13 14 16 16 17 17 18 19 19 20 20 20
12 12 11 11 11 11 10 10 10 10 11 11 10 10 10 11 12 12 12 12 13 13 14 14 14 14 14 13 13 14 15 15 16 17 18 18 19 20 20 20 21 21 21
12 12 11 10 9 9 9 9 10 10 10 10 10 10 11 11 12 12 12 12 13 13 13 13 13 13 13 13 14 15 16 17 18 19 19 20 21 21 21 21 21 22 23
13 12 12 11 11 11 11 11 10 10 9 10 10 10 11 11 11 12 12 12 12 13 13 13 14 14 14 15 15 16 17 18 19 19 20 21 22 22 22 22 23 24 25
13 12 13 12 12 12 12 11 11 10 10 10 11 11 11 11 12 13 13 13 13 13 14 14 14 15 16 16 16 17 18 19 20 21 21 22 23 23 23 23 24 24 25
13 13 13 13 13 12 11 11 12 12 12 12 12 12 12 12 13 14 14 14 14 14 15 15 15 16 16 17 18 19 20 20 21 23 23 24 24 24 24 25 25 26 27
13 13 13 14 14 13 12 12 12 12 13 13 13 13 13 13 14 14 15 14 15 15 16 16 17 17 17 18 19 20 21 22 23 25 26 26 26 26 26 27 28 28 29
14 14 14 14 15 15 14 14 13 13 13 13 13 14 14 14 15 15 15 16 16 17 17 18 18 19 20 21 22 23 24 25 26 27 27 28 28 28 28 28 29 29 30
15 15 15 15 15 15 15 14 14 14 14 14 14 15 16 16 16 16 17 17 19 19 19 20 21 22 22 23 24 25 26 27 28 28 29 29 29 30 30 31 31 32 33
16 17 15 15 15 15 15 14 15 15 15 15 16 16 17 17 17 18 19 19 20 20 21 21 22 23 24 25 26 27 28 29 29 29 29 30 30 31 32 33 34 35 35
18 17 16 15 15 15 15 15 16 16 16 16 17 17 17 17 18 19 19 20 21 21 22 22 24 25 26 27 28 29 29 30 30 30 31 32 32 33 33 34 35 35 36

GEFSMA_500_meanwind_216.txt.gz
Wind_Speed
7 8 8 8 8 8 7 8 7 7 7 7 7 7 7 8 8 8 8 9 9 9 9 10 9 9 10 10 10 11 12 12 12 11 13 13 13 13 13 13 13 13 12
8 8 9 9 9 8 8 8 8 8 7 7 7 7 8 8 8 8 9 9 9 9 10 10 10 9 10 10 10 10 10 11 12 12 13 14 15 14 14 14 14 14 14
9 9 9 9 9 8 8 8 8 7 7 7 7 8 8 9 9 9 9 10 10 9 9 9 9 10 10 10 11 11 11 12 12 12 13 14 14 14 15 15 15 15 14
8 8 8 8 9 8 8 7 8 8 8 8 8 9 9 9 9 9 10 10 9 9 10 10 10 10 10 11 11 11 12 12 12 12 12 13 14 14 14 14 15 15 15
8 9 8 8 8 8 7 8 8 9 9 9 9 9 10 10 10 10 10 10 9 10 10 10 10 10 10 11 11 11 11 11 12 12 12 12 12 13 14 15 15 15 15
9 9 8 8 8 8 8 8 9 9 9 10 10 10 10 10 10 10 10 10 10 10 10 10 10 10 10 10 10 11 11 11 11 12 12 12 12 13 13 14 14 15 15
9 9 8 8 8 9 9 9 8 9 9 9 10 10 10 10 9 9 10 10 10 10 10 10 10 10 9 10 10 10 10 11 11 11 12 12 13 13 14 14 14 15 15
10 10 10 9 9 9 9 9 8 9 9 10 10 10 9 9 9 9 9 10 10 10 10 10 10 9 9 9 9 9 10 10 10 10 12 12 13 14 14 14 14 15 15
11 11 11 10 10 10 9 9 9 10 10 10 10 10 9 8 9 9 9 9 9 9 9 10 9 9 9 9 9 10 10 10 11 11 12 12 13 15 14 15 15 15 16
12 12 12 11 11 10 10 9 10 10 10 10 10 10 9 8 7 8 9 9 9 8 9 9 9 9 9 10 10 11 11 11 11 12 12 13 14 14 13 14 14 14 15
12 12 12 12 11 11 11 11 11 11 11 11 10 10 9 9 8 7 8 9 9 9 9 9 9 9 10 10 10 10 10 11 11 11 12 12 13 13 12 13 13 14 15
14 13 13 12 12 11 11 11 11 12 11 11 10 10 9 10 9 8 8 9 9 9 10 9 9 9 9 9 9 10 10 10 10 11 11 12 12 12 12 13 14 14 15
14 14 13 13 13 13 12 12 12 11 11 11 11 10 10 10 10 9 8 8 9 9 9 10 10 10 10 9 9 10 10 10 11 11 12 13 12 13 13 14 14 15 16
14 13 13 13 13 13 13 12 12 11 11 12 11 11 11 10 10 10 9 8 8 9 10 10 11 11 11 10 10 10 11 11 12 12 13 14 14 14 14 15 16 17 18
14 13 13 13 13 14 13 12 11 12 12 11 10 11 11 11 10 10 10 9 9 9 10 11 11 12 12 12 12 12 12 13 14 14 14 15 15 15 16 16 18 19 19
13 13 13 13 13 13 13 12 12 13 13 12 11 11 11 10 10 10 10 9 9 9 10 10 11 11 11 12 12 12 13 13 14 15 15 15 16 16 17 17 18 19 21
14 14 13 13 13 13 12 12 13 13 13 12 12 11 11 10 10 10 10 10 10 10 10 11 11 11 11 12 12 13 13 14 15 16 16 17 17 18 18 19 20 20 21
14 14 14 13 13 12 12 13 13 13 12 13 12 11 10 9 10 10 10 10 10 10 11 11 11 11 12 12 13 14 14 15 16 16 17 18 19 19 20 20 21 22 22
15 15 15 14 13 13 13 13 12 12 11 12 11 10 9 10 11 11 11 11 11 12 12 12 12 12 13 14 14 15 16 17 18 18 19 20 21 21 21 21 22 23 24
15 15 15 14 13 13 13 13 12 11 11 11 11 11 10 10 11 11 11 11 12 13 13 13 14 14 15 15 16 17 18 19 19 20 21 22 23 23 23 23 24 24 25
15 14 14 14 13 13 13 13 12 12 11 11 11 11 11 11 11 12 12 13 13 14 14 15 15 15 16 16 18 19 20 20 21 22 22 23 23 24 24 25 25 26 27
16 15 15 14 13 14 14 13 12 12 12 12 12 12 12 12 13 13 14 15 15 15 16 16 16 16 17 18 19 20 21 22 23 23 24 24 25 26 26 26 27 27 28
16 15 14 14 14 14 14 14 14 14 14 14 14 14 13 14 14 15 15 16 16 17 17 17 17 18 19 20 21 22 22 23 23 24 25 26 27 27 27 28 28 29 29
16 15 15 15 14 14 15 15 15 15 15 15 15 15 15 16 16 16 17 17 17 18 18 18 19 20 21 22 23 23 23 24 25 26 26 27 28 28 29 29 29 30 31
16 16 16 16 15 16 16 17 17 17 17 17 16 16 17 17 18 18 18 19 19 19 20 20 21 21 22 23 24 24 24 25 26 26 27 27 28 29 30 31 31 32 33
17 17 16 17 17 17 17 18 18 18 18 18 18 18 18 19 19 19 20 20 20 21 21 21 21 22 23 24 24 25 25 26 26 27 27 28 29 29 30 32 33 34 34

GEFSMA_500_meanwind_222.txt.gz
Wind_Speed
8 9 9 9 10 9 9 9 9 9 9 8 8 8 9 9 9 9 9 9 9 9 9 10 10 10 11 11 11 11 11 12 12 12 12 12 12 12 12 12 12 13 13
9 9 9 9 9 9 8 9 9 8 8 8 8 9 9 9 9 9 10 10 9 9 9 10 10 10 11 11 11 12 12 12 12 13 13 13 13 13 13 13 14 13 14
9 9 8 9 9 9 9 9 9 9 9 9 9 10 10 10 10 10 10 10 10 10 10 10 10 10 11 11 11 12 12 13 13 13 13 13 13 13 13 13 13 13 14
10 9 9 9 9 9 9 9 9 9 9 10 10 10 10 11 10 11 11 11 10 10 11 11 11 10 10 11 12 12 12 12 13 13 12 13 13 12 13 13 13 14 14
11 10 10 10 10 9 10 10 10 10 10 9 10 11 11 10 10 11 11 11 11 10 11 11 11 11 11 11 11 11 11 11 12 12 12 12 12 12 13 13 13 14 15
12 11 11 11 11 10 11 11 10 10 10 9 10 11 11 11 11 11 11 11 11 10 10 11 11 11 11 11 11 11 11 11 11 12 12 12 13 13 13 13 14 15 15
12 12 11 11 11 11 11 11 10 10 10 10 10 11 11 11 11 11 10 11 11 11 10 11 11 11 11 11 11 11 11 11 11 12 12 12 12 13 13 14 14 14 15
13 12 12 11 11 11 11 10 9 9 10 11 11 11 11 11 11 11 11 11 11 10 10 11 10 10 10 11 11 11 10 10 11 11 12 12 12 12 13 14 14 14 15
13 13 13 12 11 11 11 10 10 10 10 11 11 11 10 11 11 11 11 11 11 10 10 10 10 10 10 10 11 11 11 11 11 12 12 12 12 13 14 14 14 15 15
13 13 13 12 12 11 12 11 11 11 10 10 10 10 10 11 11 11 11 11 11 11 11 11 10 10 10 11 11 11 11 11 11 11 12 12 12 12 13 14 14 14 14
13 13 13 13 12 12 13 12 12 12 11 11 11 11 11 12 11 12 11 11 11 12 12 12 12 11 11 11 11 11 11 11 11 12 12 12 12 13 13 14 14 15 14
13 13 13 13 13 13 14 13 12 12 12 11 11 12 12 12 12 12 12 12 12 12 13 13 12 12 12 12 12 11 11 11 12 12 13 13 14 14 15 15 15 15 15
14 15 14 14 14 14 14 14 13 13 13 12 12 12 13 13 12 12 12 12 12 12 12 13 13 12 12 12 12 12 12 13 13 13 14 15 15 16 16 16 16 16 16
15 15 15 14 14 14 14 14 14 13 13 13 13 13 13 13 13 12 12 13 12 12 12 13 13 13 12 12 12 12 13 13 14 14 15 16 16 17 17 17 17 17 17
15 14 14 15 15 15 15 14 14 14 14 13 13 14 14 14 14 12 12 12 12 12 12 13 13 13 13 13 13 13 14 14 14 15 15 16 17 17 17 17 18 19 19
16 15 15 15 15 16 15 15 15 15 15 14 14 14 13 13 13 13 12 12 12 12 12 12 13 13 12 13 13 14 14 14 15 16 16 17 17 18 18 18 19 19 20
16 16 16 15 15 15 16 16 15 15 15 15 14 14 14 13 13 13 12 12 13 13 13 13 13 13 13 13 14 14 14 15 16 17 17 18 18 19 19 19 20 21 21
17 16 15 14 15 15 15 15 15 15 14 13 13 13 13 12 12 12 12 13 13 13 13 13 13 13 13 14 14 15 15 16 17 18 18 19 19 20 20 20 21 22 23
16 16 14 14 14 14 14 14 14 13 13 13 13 13 13 13 13 13 13 14 14 14 14 14 13 14 14 15 15 16 16 17 19 19 19 20 20 20 20 22 23 24 25
16 15 15 14 14 15 15 14 14 13 12 12 12 13 13 13 13 13 13 13 14 14 14 14 15 15 16 16 17 17 18 19 19 20 20 20 21 21 22 23 24 25 26
16 15 15 15 16 16 15 14 14 13 13 13 13 13 13 13 13 13 13 14 14 14 15 15 16 16 17 17 18 18 19 20 20 20 21 21 23 24 24 25 26 26 27
16 15 15 15 15 15 15 15 15 14 13 13 13 13 13 14 14 14 15 15 16 16 16 16 17 17 17 18 18 19 20 21 21 21 22 23 24 25 26 27 27 27 28
15 15 16 16 15 15 15 15 15 14 14 14 14 14 14 14 15 15 16 16 16 16 17 17 18 18 18 19 19 20 21 22 22 22 23 25 26 27 28 28 28 28 28
15 16 16 16 16 16 17 16 16 15 15 14 14 15 15 16 17 17 17 17 17 17 18 19 20 20 21 21 21 21 21 21 22 23 25 26 28 29 29 29 28 29 30
16 16 16 16 17 17 17 17 16 16 16 16 16 17 17 17 18 18 18 18 19 19 20 20 20 21 22 21 21 21 22 23 24 25 26 28 29 29 30 30 31 31 32
16 16 16 17 17 17 17 17 17 18 18 18 18 19 18 19 19 18 19 19 20 21 21 21 21 21 22 21 22 23 24 25 26 27 28 29 29 30 30 31 32 33 33

GEFSMA_500_meanwind_228.txt.gz
Wind_Speed
9 9 9 9 8 8 9 9 9 9 9 8 8 8 8 8 8 8 8 9 9 9 10 10 10 9 9 9 9 10 10 11 11 11 11 11 12 12 12 13 13 13 13
10 9 9 9 9 9 9 9 9 9 9 9 9 9 8 8 9 9 9 9 9 10 10 9 10 10 9 9 10 10 10 10 11 11 12 12 12 12 12 13 13 14 14
10 10 9 9 10 10 9 9 9 9 10 10 10 9 9 9 9 9 9 9 10 10 10 10 10 10 9 9 10 10 10 11 11 12 12 12 12 13 13 13 14 14 14
11 11 11 10 10 10 10 9 9 10 10 10 10 10 9 9 9 9 9 9 9 9 9 9 10 10 9 10 10 10 11 11 11 11 11 11 12 12 13 13 13 14 14
12 12 12 12 11 11 11 11 10 10 10 10 10 10 10 10 9 9 9 10 10 10 10 9 10 10 10 10 10 10 11 11 12 11 12 12 12 12 13 13 13 13 14
13 12 12 12 12 12 12 12 11 11 11 11 11 10 10 9 9 9 9 10 10 10 10 10 10 10 10 10 9 10 10 11 11 11 12 12 12 13 13 13 13 13 14
13 13 12 12 13 12 13 13 12 11 12 11 10 10 9 9 10 10 10 10 10 10 10 10 9 10 9 9 9 10 10 11 11 11 11 11 12 12 13 13 13 13 14
14 13 12 13 13 13 13 13 12 12 11 11 10 10 10 10 10 10 10 10 10 10 10 10 10 10 9 10 10 10 11 10 10 11 11 11 11 12 12 12 13 13 13
13 13 13 13 13 13 13 12 12 11 11 12 11 11 11 10 10 11 11 11 11 11 11 10 10 10 10 10 11 11 10 10 10 10 10 11 12 12 12 12 12 12 13
14 14 14 14 14 13 13 13 12 12 12 12 12 12 11 11 11 11 11 11 11 12 12 11 11 11 10 10 11 11 11 10 11 11 11 11 12 13 13 13 13 14 14
14 14 14 14 14 13 13 12 12 12 12 12 13 12 12 12 12 12 12 12 12 12 12 12 11 11 11 10 10 10 10 10 11 11 11 11 12 12 13 14 14 14 14
14 14 14 14 14 14 14 13 13 13 13 13 13 12 12 13 13 13 13 12 12 12 12 12 12 12 12 11 11 11 12 11 11 11 12 12 12 13 14 14 14 14 15
14 14 15 14 15 15 15 14 13 14 14 14 13 13 13 13 13 13 13 13 13 12 12 12 13 13 12 12 12 12 13 12 12 12 12 13 13 14 15 15 15 15 16
15 15 15 15 15 15 15 15 15 15 14 14 14 14 14 14 13 13 13 13 13 13 13 13 13 13 13 13 13 13 13 12 13 13 13 13 14 15 16 16 16 16 17
15 15 15 15 15 15 15 15 14 14 14 14 14 14 14 14 13 13 12 12 12 13 12 13 13 13 14 14 13 13 13 13 13 14 14 14 15 16 17 17 17 18 18
15 15 16 16 15 15 15 15 15 15 15 14 14 14 14 14 13 13 13 12 13 13 12 12 13 13 14 14 14 14 14 14 14 15 15 16 16 17 17 18 18 18 19
16 16 17 16 15 16 15 15 15 15 15 14 14 14 14 14 13 13 13 13 14 14 13 13 14 13 14 14 14 15 15 15 15 16 16 17 18 18 18 18 19 20 21
17 17 17 17 16 16 15 15 15 15 15 14 14 14 15 15 14 14 14 14 14 13 13 13 13 13 13 14 15 15 16 16 16 17 18 18 18 19 19 19 20 21 22
17 16 17 17 16 16 16 16 15 15 15 15 14 14 14 14 14 14 13 13 13 13 13 13 12 13 13 14 15 15 16 17 18 18 19 19 19 19 20 20 21 22 23
16 16 16 16 16 17 17 16 16 15 15 14 14 13 13 14 13 13 13 13 12 12 13 13 13 13 13 14 15 16 17 18 19 19 20 20 21 21 22 22 23 24 24
15 16 17 16 16 16 16 16 16 15 15 14 14 14 14 13 14 13 13 12 12 12 13 13 14 14 15 16 17 17 18 19 19 20 21 21 21 22 23 23 24 25 25
16 16 16 16 16 16 16 16 16 15 15 15 15 15 14 14 14 14 13 13 13 14 14 14 15 15 16 16 17 18 19 20 20 21 22 22 22 23 24 24 25 26 27
15 15 16 15 16 16 16 16 16 15 15 15 15 15 14 14 14 14 14 14 14 15 15 16 16 16 16 16 18 19 20 21 22 22 23 23 24 25 26 26 27 27 28
15 15 15 15 15 16 16 16 16 16 16 16 16 16 15 14 14 15 15 15 15 15 16 16 16 16 17 18 19 20 20 21 22 23 23 24 25 26 27 27 28 29 29
15 15 14 14 15 15 16 16 16 16 16 16 16 16 15 15 15 16 16 15 15 16 16 17 17 18 18 19 20 20 21 22 23 24 24 25 25 26 27 28 29 30 30
14 14 14 14 14 15 16 16 16 16 16 16 16 15 15 15 16 16 16 16 16 16 17 17 18 19 19 20 20 21 22 23 24 24 25 25 26 26 27 28 29 30 30

GEFSMA_500_meanwind_234.txt.gz
Wind_Speed
10 10 10 10 9 9 9 10 10 10 10 10 10 10 10 9 9 10 10 10 9 9 10 10 10 10 10 10 10 10 9 10 10 10 10 10 9 10 10 10 10 11 12
11 11 10 10 10 10 11 11 11 11 11 10 10 10 9 10 10 10 10 10 10 10 10 10 11 10 10 10 10 10 10 10 10 10 10 10 10 10 10 11 11 11 12
12 12 12 12 11 10 11 11 11 11 12 11 11 10 10 10 10 10 10 10 10 10 10 10 10 11 10 10 10 10 10 10 10 9 9 9 10 10 10 11 12 13 13
12 12 13 13 12 11 12 12 11 11 12 12 11 10 10 11 11 11 10 10 10 10 10 10 10 10 10 9 9 10 10 10 10 10 10 10 10 10 11 12 12 13 13
13 14 14 13 13 12 12 13 12 12 12 12 11 11 11 11 11 11 11 11 10 10 10 10 10 10 9 9 10 10 10 10 10 10 10 10 11 11 12 12 13 13 13
14 14 14 13 12 12 13 12 12 13 12 12 12 12 12 11 11 11 11 10 10 10 10 10 10 10 9 9 9 10 10 10 10 10 10 10 10 11 12 12 12 13 13
15 14 14 13 13 13 13 12 13 13 12 12 12 12 12 11 11 11 11 10 10 10 10 10 10 10 10 10 10 10 10 10 10 10 10 11 11 11 12 12 12 13 12
14 14 13 13 13 13 13 13 13 13 13 13 12 12 12 11 12 11 11 11 11 11 11 11 10 11 10 10 11 11 11 11 10 10 11 11 11 11 12 12 12 13 13
14 13 13 13 13 13 13 14 14 14 14 13 13 12 12 11 12 12 12 12 12 12 12 12 12 11 11 11 11 11 11 11 11 11 11 11 11 12 12 12 12 12 13
13 13 12 12 13 13 13 13 14 13 13 13 13 13 13 13 13 13 13 13 13 13 13 13 12 12 11 11 11 11 12 12 12 12 11 11 12 12 12 12 12 12 12
13 13 12 13 13 13 13 13 13 13 14 14 14 13 13 14 14 14 14 14 14 14 13 13 13 12 12 11 11 12 12 13 12 12 12 12 12 11 11 12 12 12 13
13 13 13 13 13 13 13 13 13 13 13 14 14 13 14 14 15 15 14 14 14 14 14 13 13 13 13 13 13 13 13 13 13 13 13 13 12 12 12 12 13 13 14
13 13 13 13 13 13 13 14 13 13 13 13 13 14 14 14 14 15 15 15 14 14 14 14 14 14 14 13 13 14 14 14 14 13 14 13 13 13 13 13 14 15 15
14 14 13 13 13 13 13 14 14 13 13 13 14 14 14 14 14 15 15 15 15 15 15 14 15 15 15 14 14 14 14 14 14 13 14 14 14 15 15 15 16 16 16
14 14 13 13 14 14 14 14 14 13 14 14 15 15 15 15 14 15 15 16 16 16 15 15 16 16 15 15 14 14 14 14 13 14 14 15 16 16 17 17 17 17 17
15 15 15 15 15 15 15 16 15 15 15 15 15 15 15 15 14 15 15 15 16 16 16 16 16 16 16 15 15 14 14 14 15 15 15 16 16 17 17 17 17 18 18
16 16 16 15 15 16 16 15 15 16 16 16 16 16 16 15 15 15 15 15 15 15 15 15 15 15 15 15 16 16 16 15 16 16 17 17 17 18 18 18 19 19 20
16 16 16 15 15 16 16 16 15 16 16 16 16 17 16 16 15 15 15 15 15 15 15 15 14 15 15 16 16 17 16 16 16 17 18 18 18 19 19 20 20 21 22
17 16 16 16 16 16 16 16 16 16 16 16 17 17 16 16 15 15 16 16 15 15 14 14 14 15 16 16 16 16 16 17 17 18 18 18 19 19 20 21 22 22 23
16 16 16 16 16 16 17 17 16 16 16 16 16 16 15 16 16 15 15 15 15 15 15 15 15 15 15 16 16 16 17 17 17 18 19 19 20 21 21 22 23 24 24
16 16 16 16 17 17 17 17 16 16 16 16 16 15 15 16 16 15 15 15 14 15 15 16 16 15 15 15 16 17 17 18 18 19 19 20 21 21 22 22 23 23 24
16 16 16 16 16 17 17 17 16 15 14 15 15 15 16 16 16 16 16 16 15 16 16 16 16 16 16 16 17 17 17 18 19 19 20 20 21 22 23 23 24 24 25
15 16 16 16 16 17 16 16 16 17 16 16 16 16 16 16 17 17 17 17 17 16 16 16 16 16 16 17 17 18 19 20 20 20 21 22 22 23 24 24 24 25 26
16 16 16 16 16 16 16 16 17 17 17 16 16 17 17 17 17 16 16 16 15 16 16 16 17 17 17 18 18 19 20 21 22 22 22 23 23 24 25 25 25 26 26
16 16 16 15 16 16 15 16 16 16 16 17 17 17 17 17 17 16 16 16 16 16 17 17 17 17 18 19 19 20 21 22 22 22 23 24 25 25 25 25 26 27 28
16 15 15 15 16 16 16 16 16 16 16 17 17 17 16 17 17 17 18 17 17 17 18 18 18 18 19 20 21 22 22 22 22 23 24 25 26 26 26 27 28 28 29

GEFSMA_500_meanwind_240.txt.gz
Wind_Speed
12 11 10 10 10 9 9 8 9 9 9 9 9 9 9 9 9 8 8 9 9 9 9 9 9 9 9 9 8 8 8 9 9 9 9 9 10 10 11 11 11 10 11
11 11 10 10 10 9 9 9 9 10 10 9 9 9 9 9 9 9 9 9 9 9 9 9 9 9 9 9 8 8 9 9 8 8 9 9 10 10 11 11 12 11 11
11 11 11 11 10 10 9 9 10 10 10 10 9 9 9 9 9 9 10 9 9 9 10 10 9 9 9 9 9 9 9 9 9 8 9 9 9 10 10 10 11 12 13
11 12 11 11 11 10 9 9 11 11 11 10 10 9 9 9 9 9 10 10 10 10 10 10 9 9 8 9 9 10 9 9 8 9 9 9 9 10 10 11 11 12 12
12 12 12 11 11 10 10 11 12 12 11 11 10 10 10 10 10 10 10 10 10 9 9 9 9 9 9 9 9 9 9 9 9 9 10 10 10 10 10 11 11 12 13
12 12 12 12 12 11 11 11 12 12 12 12 11 11 10 10 11 11 10 10 9 9 9 9 9 9 9 9 9 9 10 9 10 10 10 10 10 11 11 12 12 12 13
11 12 12 12 12 12 12 13 12 12 13 13 12 12 11 11 11 12 11 10 10 10 10 10 10 10 9 9 10 10 10 10 10 10 10 10 10 10 11 12 12 12 12
11 12 12 12 12 12 12 13 13 13 13 13 12 12 12 12 11 11 10 11 11 11 11 11 10 10 10 10 10 10 10 10 10 10 10 11 11 11 11 11 12 12 12
12 12 13 13 12 12 12 13 13 13 13 12 12 12 12 12 12 11 11 11 11 12 12 12 11 11 11 11 11 11 11 11 11 11 11 11 12 12 12 11 12 12 12
13 13 13 13 12 12 12 12 12 13 13 12 12 12 12 12 12 11 12 12 12 13 12 12 12 12 12 12 11 11 11 11 11 12 12 12 12 12 12 12 12 13 13
13 13 13 13 13 12 13 13 13 13 13 13 12 12 12 12 12 12 12 12 13 13 13 13 13 13 13 13 12 13 12 13 13 13 13 14 14 14 14 14 15 15 15
13 13 13 14 13 13 13 13 12 12 13 13 13 13 13 12 12 12 12 13 13 14 14 14 14 14 13 13 14 14 14 13 13 13 14 14 14 15 16 16 16 16 17
14 15 15 14 13 12 13 12 12 12 12 13 13 13 12 12 13 13 13 13 14 14 14 14 14 14 14 14 15 14 14 14 14 14 14 14 14 15 16 16 16 16 16
14 13 13 13 13 12 13 13 13 12 12 13 13 13 13 13 13 13 14 14 15 14 14 14 14 15 15 16 16 15 15 14 14 14 14 14 14 15 15 16 16 17 17
14 13 13 13 13 12 12 13 13 13 13 13 14 14 13 14 14 14 14 14 14 14 14 14 14 14 15 15 15 15 15 15 14 14 14 14 14 15 16 16 17 17 17
14 14 14 14 14 13 13 13 12 13 13 14 14 13 14 14 14 14 14 14 15 15 15 14 14 14 15 15 15 15 15 14 14 14 14 14 14 15 16 17 17 17 18
15 14 14 15 14 15 14 13 13 13 14 14 14 14 14 13 14 14 15 15 15 15 15 14 14 14 14 15 16 15 15 15 15 15 15 15 15 16 17 18 18 18 18
16 16 15 15 15 15 15 14 14 14 14 14 13 13 13 13 14 14 15 14 14 14 14 13 13 13 13 14 14 15 15 15 15 15 15 16 16 17 18 18 18 19 19
16 16 15 15 15 15 15 15 15 15 15 14 13 13 14 14 15 15 15 15 15 14 14 14 14 15 14 14 14 15 15 16 16 16 16 17 17 18 18 18 19 19 20
17 16 16 15 15 15 16 15 16 16 15 15 15 14 15 15 15 16 16 16 15 15 15 15 15 15 14 14 15 16 17 17 17 17 18 18 19 20 20 20 21 21 22
15 15 16 16 16 16 17 16 16 16 16 16 16 15 15 15 15 16 16 16 16 16 16 15 15 15 14 15 16 17 17 18 19 19 19 20 20 21 21 22 22 23 23
16 16 16 16 16 16 16 16 17 17 17 16 16 16 16 16 16 16 16 16 16 16 15 15 15 15 15 16 16 17 17 18 18 19 20 20 21 21 22 22 23 23 24
16 16 16 16 16 16 16 16 16 16 16 16 16 16 16 17 17 17 17 17 16 16 16 17 16 16 16 16 17 17 17 18 18 18 20 21 21 22 22 22 23 24 24
17 17 16 15 16 16 16 16 16 16 16 16 15 16 16 16 16 16 16 16 16 16 16 16 17 17 17 17 17 18 18 18 19 19 21 22 23 23 23 23 24 24 24
16 16 16 16 17 16 16 16 16 16 16 16 17 17 16 16 16 16 16 17 16 16 16 17 17 17 17 17 18 18 18 18 19 20 21 22 23 23 24 24 24 24 24
17 16 17 16 16 17 16 16 16 16 16 17 17 17 17 17 17 17 17 16 16 16 17 17 18 18 18 18 19 19 19 20 21 22 22 22 23 23 23 23 24 24 24

GEFSMA_500_meanwind_246.txt.gz
Wind_Speed
11 11 12 12 11 11 11 11 11 10 10 10 10 10 10 10 9 9 9 9 9 9 9 9 8 8 8 9 9 9 8 9 9 9 10 10 10 11 11 10 11 11 11
12 11 12 12 12 11 11 11 10 10 10 10 10 10 10 10 9 10 9 9 10 10 10 9 9 9 9 9 9 9 9 9 9 10 10 10 10 10 10 10 11 11 12
12 11 11 11 11 11 10 10 10 10 10 10 10 10 10 10 10 9 9 9 10 10 10 9 10 9 9 9 9 9 9 10 10 10 10 10 10 10 10 10 11 11 12
12 12 11 10 10 11 11 10 10 10 11 11 10 10 10 10 10 10 10 10 10 10 10 10 9 9 9 9 9 9 9 9 9 9 10 10 11 11 11 11 12 12 12
12 12 12 11 11 11 11 11 11 11 11 11 12 11 11 11 11 11 11 11 11 11 10 10 10 10 9 9 9 10 10 10 10 11 11 11 11 11 11 12 12 12 12
12 12 12 12 11 12 12 12 12 12 12 12 12 12 12 12 12 12 12 11 11 11 11 10 10 10 10 10 10 10 11 11 11 11 11 12 12 12 12 12 12 12 12
12 13 12 12 12 12 12 13 13 13 12 12 12 13 13 13 13 12 12 12 11 11 11 10 10 11 10 10 10 11 11 11 11 11 11 12 12 13 12 12 13 13 12
13 13 13 13 12 12 13 13 13 14 14 13 13 13 13 13 13 13 13 12 12 12 11 11 11 11 11 11 11 11 11 11 11 11 12 12 13 13 13 13 13 13 13
12 13 13 12 12 13 13 14 14 14 13 13 13 12 12 12 12 12 12 12 12 12 13 13 13 13 12 12 12 12 12 12 12 12 13 13 13 14 14 14 14 14 14
11 11 12 12 13 13 14 14 14 13 14 14 13 13 12 12 12 12 13 13 13 13 13 13 13 13 12 12 13 13 13 13 13 13 13 14 14 14 14 14 14 14 15
11 11 11 12 12 13 14 14 13 13 14 13 13 13 13 12 13 13 13 13 13 13 13 14 13 13 13 13 13 14 14 14 14 14 14 14 14 14 15 15 15 15 15
12 12 11 12 12 12 13 13 13 14 14 13 13 13 13 13 13 13 13 13 13 13 14 14 14 14 14 14 14 14 14 14 15 15 15 15 14 14 14 15 16 16 16
13 12 12 13 13 13 13 13 13 13 14 13 13 13 13 13 13 13 13 13 13 13 13 14 14 15 15 15 15 14 14 14 14 15 15 15 15 14 15 16 16 17 17
13 13 13 14 13 14 14 14 13 13 13 13 13 13 13 13 13 13 13 13 13 13 14 14 15 15 15 15 15 15 15 15 15 15 15 15 15 15 16 16 17 17 18
14 13 13 14 14 14 14 14 14 14 13 13 13 13 13 13 13 13 13 13 13 13 14 14 15 15 15 15 15 15 15 15 15 15 14 15 15 14 15 16 16 17 18
14 15 15 15 15 14 14 15 15 15 14 14 14 14 14 14 14 14 14 14 14 15 15 15 16 16 16 16 16 15 15 15 15 15 14 14 14 15 15 16 17 17 18
16 16 16 16 15 15 15 16 16 16 15 15 15 16 16 15 14 14 14 14 15 15 16 16 16 15 15 15 16 16 15 15 16 16 15 15 15 15 16 16 16 17 18
17 17 17 17 17 16 16 16 16 16 16 16 16 16 16 16 15 15 15 15 16 16 16 16 16 15 15 16 16 16 15 16 16 16 16 16 16 16 16 16 17 18 18
17 17 17 18 18 18 17 17 17 16 16 16 16 16 16 16 15 15 15 16 16 16 16 16 16 16 16 16 16 16 16 16 17 17 17 17 17 17 17 18 18 19 19
18 18 18 19 19 18 17 17 16 16 16 17 17 17 17 16 16 15 15 16 17 16 16 16 16 16 16 16 16 16 16 17 18 18 18 18 18 19 18 19 19 19 19
18 18 19 19 19 18 17 17 17 16 16 17 17 17 17 16 16 15 15 16 16 16 16 16 16 15 16 16 16 16 17 18 18 19 19 19 20 20 19 19 19 19 19
19 18 18 18 18 18 17 17 17 17 17 17 17 17 17 17 16 16 16 16 17 17 16 16 16 16 16 16 17 17 18 18 18 19 20 20 20 19 19 19 19 19 19
19 18 19 19 18 18 18 18 18 18 17 17 17 17 16 16 16 17 17 17 17 17 17 17 17 17 17 17 17 18 18 18 18 19 19 19 19 19 19 20 20 20 20
20 19 19 19 19 19 19 19 19 18 18 18 18 16 16 17 18 18 18 18 18 18 18 18 17 17 17 17 18 18 18 19 19 20 20 20 20 20 20 20 20 20 21
20 19 19 19 18 18 19 19 19 19 19 19 18 17 17 18 18 19 19 19 19 19 18 18 18 17 17 17 18 19 19 20 20 21 21 21 21 21 21 21 21 22 22
20 20 20 19 19 18 18 19 19 19 19 19 19 19 19 20 20 20 20 20 19 19 19 18 18 18 18 18 19 20 20 21 22 21 21 21 21 21 21 22 22 23 22

GEFSMA_500_meanwind_252.txt.gz
Wind_Speed
11 11 11 12 12 12 10 10 10 10 9 9 9 10 9 9 9 9 9 9 9 8 9 9 9 9 9 9 10 10 10 10 11 11 11 11 10 10 11 12 12 12 12
11 11 11 11 12 12 11 10 10 10 9 9 9 10 10 10 9 10 10 10 10 10 9 9 9 9 9 9 9 9 9 10 10 11 11 11 11 11 12 12 12 13 13
12 12 12 12 12 11 11 10 10 10 10 9 9 9 10 10 10 10 10 10 10 10 10 10 10 10 10 9 9 9 9 10 10 10 11 11 12 12 12 13 14 14 13
12 13 12 12 12 11 11 10 11 10 10 10 10 10 10 10 10 11 11 10 11 11 11 11 11 10 10 9 9 9 10 10 10 10 11 11 12 13 12 13 14 14 14
13 13 13 13 12 10 10 10 10 11 11 11 10 10 11 11 11 11 11 11 10 11 11 11 11 11 11 10 10 10 11 11 11 11 11 12 13 13 13 13 13 13 14
13 13 13 12 12 11 11 11 11 11 11 11 11 11 12 11 11 11 11 11 11 11 11 11 11 11 11 11 10 10 10 11 12 12 13 13 13 12 12 13 13 13 14
13 13 12 12 11 11 11 11 12 12 12 12 11 12 12 12 12 12 12 12 12 12 12 12 12 11 12 12 11 11 11 11 11 12 12 13 13 13 13 13 14 14 15
13 12 11 11 11 12 12 12 12 12 12 12 12 13 13 12 12 12 12 12 12 12 12 12 12 12 13 12 12 12 12 12 12 12 12 13 13 13 14 13 14 15 15
12 12 11 11 11 12 12 12 12 12 12 13 12 12 12 12 12 12 12 12 13 13 13 13 13 13 13 13 13 13 13 13 13 13 13 13 13 14 14 14 13 13 14
11 11 10 11 11 11 11 12 12 12 12 12 11 11 11 11 11 12 12 13 13 14 14 14 14 14 14 14 14 14 14 14 14 14 14 14 14 14 14 14 15 14 14
11 11 11 11 11 11 11 11 12 12 12 12 11 11 11 11 12 12 13 13 14 14 14 15 15 14 14 14 15 14 14 14 14 14 14 14 15 15 15 15 15 15 16
10 10 10 11 11 11 12 12 12 12 12 12 12 11 11 12 12 13 13 14 14 14 14 15 14 14 14 14 14 14 14 14 14 14 14 14 14 14 15 15 15 16 16
11 11 11 11 11 12 12 13 14 13 13 12 12 12 12 12 13 13 13 13 13 13 14 14 14 14 14 14 14 14 14 15 15 15 14 15 15 14 15 15 15 15 16
12 12 12 12 13 13 14 14 14 14 13 12 12 12 13 13 13 13 13 13 13 14 14 14 14 15 15 15 15 15 15 15 15 14 15 15 15 15 14 15 15 16 15
14 14 14 14 14 15 15 14 15 15 13 13 13 13 13 13 13 13 13 14 13 13 14 15 15 15 15 15 16 16 15 15 15 15 16 16 16 15 15 15 15 15 15
14 15 16 16 16 16 16 15 15 14 14 14 14 14 14 14 14 14 14 15 14 14 14 15 15 16 16 16 16 16 16 16 16 17 17 17 16 16 16 16 15 15 15
15 16 16 17 16 16 16 16 15 15 15 15 15 15 15 15 15 14 14 15 14 14 15 15 16 16 16 17 17 17 16 16 16 17 17 17 17 17 17 17 16 17 17
17 16 16 17 17 17 16 16 16 16 16 16 16 16 16 16 16 16 15 15 15 15 15 15 16 16 16 17 16 16 17 17 16 17 18 17 17 17 17 17 18 18 19
18 17 17 18 18 18 18 17 17 17 17 17 17 17 17 17 17 16 16 16 16 16 16 16 16 16 16 16 16 16 17 17 17 17 17 17 17 17 18 18 18 19 19
18 19 19 19 19 19 19 18 18 18 18 18 18 18 17 17 17 17 17 17 16 16 16 16 16 16 16 16 16 16 17 17 17 18 18 18 18 18 18 19 18 18 19
20 20 19 19 19 19 19 19 19 19 19 18 18 18 18 18 18 17 17 17 17 17 17 17 17 16 16 17 17 18 17 18 19 19 19 19 18 18 18 19 19 20 20
20 20 20 20 20 19 19 19 19 19 19 19 19 19 19 19 19 18 18 17 17 17 17 16 16 16 17 17 17 18 18 19 19 19 19 19 19 18 18 19 20 20 20
21 21 20 20 20 20 19 19 19 19 19 19 19 19 19 19 19 19 19 19 18 18 17 17 17 17 17 18 19 19 19 20 20 20 20 19 19 19 19 19 20 20 20
21 21 20 20 20 20 20 20 19 19 19 20 20 20 20 20 20 20 19 19 19 19 19 19 19 19 19 19 19 20 20 20 20 20 19 19 20 20 19 20 20 20 20
21 21 20 20 20 20 20 20 21 21 21 21 20 20 20 20 20 20 19 19 19 19 20 20 21 21 21 21 21 22 22 22 22 21 21 21 21 21 21 21 21 21 20
21 21 21 21 21 20 20 20 20 20 20 20 21 21 21 21 21 21 20 19 20 20 20 21 21 21 22 22 23 23 23 23 22 22 22 22 22 22 22 22 22 22 22